GFSMA_500_rhum_018.txt.gz
RH
30 28 26 23 20 15 8 2 2 2 3 4 5 6 7 7 7 6 6 6 6 5 6 6 6 6 6 6 6 7 7 7 9 11 12 11 7 4 3 2 10 38 46
27 25 19 15 10 3 1 1 2 3 4 4 4 4 6 7 10 12 14 18 20 22 22 23 25 26 27 26 26 25 24 22 20 18 14 10 7 6 6 6 20 43 46
18 10 5 5 3 2 3 4 6 10 14 17 19 20 20 22 24 27 30 32 31 31 32 30 28 28 27 26 26 27 31 36 40 41 41 38 33 30 29 34 44 48 53
14 4 4 7 8 10 13 17 20 22 23 23 27 33 34 33 30 25 20 17 15 15 15 17 17 16 17 19 21 22 22 21 22 22 25 32 40 42 43 46 50 52 55
6 6 9 11 13 15 20 24 28 32 36 34 32 25 17 13 12 11 10 9 8 8 8 8 8 8 8 7 7 8 8 11 16 23 26 26 25 25 27 35 47 56 61
8 11 14 18 25 30 34 38 38 34 26 18 14 11 8 8 9 10 10 10 10 10 10 9 9 10 10 10 10 10 11 11 11 11 14 22 25 30 33 35 40 46 51
11 20 31 36 39 40 35 28 18 12 9 9 10 11 12 13 15 15 17 17 16 16 15 14 14 14 14 14 14 14 14 13 13 14 14 14 15 24 40 40 40 42 44
29 38 41 39 33 25 18 13 11 11 13 14 14 14 13 16 18 18 19 19 19 18 17 15 13 12 11 10 9 8 8 8 8 8 10 12 14 26 31 40 48 46 46
45 40 32 26 23 21 16 13 16 16 12 13 13 14 14 15 15 16 17 17 16 15 14 14 12 12 11 11 10 10 9 9 9 8 8 8 9 12 31 48 50 44 46
38 29 25 25 17 14 18 19 13 11 10 9 11 15 17 16 16 14 15 16 16 17 16 15 14 13 11 10 10 9 9 9 9 9 8 8 7 9 36 42 50 53 57
30 30 22 14 17 20 16 13 13 14 14 15 17 17 18 19 19 18 14 15 16 17 16 16 14 12 10 8 7 7 6 7 8 9 11 13 40 44 58 58 60 67 61
33 18 19 21 18 16 16 17 18 18 19 20 20 20 20 20 20 19 18 16 15 14 12 10 9 8 7 6 6 7 6 8 11 13 20 51 70 90 100 91 71 100 81
20 22 18 17 18 19 19 18 18 20 21 22 22 22 22 20 19 17 14 13 12 10 9 9 8 7 6 6 6 9 15 23 23 24 23 32 76 99 100 99 98 98 94
19 18 20 21 20 19 20 21 22 23 24 24 23 22 20 18 15 13 12 10 9 8 6 5 5 5 4 6 11 18 32 43 44 40 38 45 55 76 100 98 100 99 98
22 23 23 23 23 23 24 25 26 26 25 23 22 20 17 15 13 10 8 7 7 6 5 4 5 6 7 12 20 34 58 54 50 63 69 60 59 74 97 91 100 94 90
25 25 26 27 28 28 28 29 28 26 24 21 19 16 14 10 8 7 6 7 10 13 10 5 5 7 10 12 14 21 45 69 56 48 61 75 67 64 76 90 95 93 94
29 31 31 31 31 33 33 30 28 25 22 19 15 12 9 8 7 6 7 11 11 11 10 8 7 6 7 10 14 19 34 51 66 53 44 41 44 49 64 75 80 90 92
32 32 34 37 38 36 33 30 26 23 18 14 10 9 8 7 6 8 12 12 10 8 5 4 3 4 5 6 6 8 15 23 46 62 54 37 31 28 26 29 49 66 81
36 40 43 43 39 36 33 28 21 16 11 8 8 7 8 7 10 15 13 10 5 5 7 8 7 6 5 5 5 6 7 7 12 28 49 51 43 31 26 21 20 24 53
45 51 49 43 40 32 23 16 13 10 8 8 8 8 8 15 19 13 9 5 6 7 8 8 7 7 5 5 6 6 6 6 6 7 16 34 42 36 28 27 25 20 18
57 54 46 40 28 18 14 12 11 9 8 8 8 9 22 22 14 7 6 7 7 8 8 8 7 6 6 8 9 9 12 13 11 8 7 10 19 34 37 36 36 27 18
57 48 38 26 17 16 15 12 10 9 9 8 12 24 24 17 7 6 9 9 7 8 8 7 8 9 8 11 12 12 14 18 15 20 11 7 8 11 18 24 28 25 17
48 37 25 20 18 14 12 11 10 10 10 17 25 25 19 10 7 9 10 9 8 8 9 16 22 14 8 8 9 10 13 15 16 18 16 8 9 6 6 7 8 9 11
36 26 22 16 14 12 12 12 13 13 20 28 27 21 14 7 11 10 8 8 9 9 8 14 30 23 7 8 8 7 8 10 11 12 12 9 10 7 5 5 5 6 9
28 22 18 15 14 13 13 16 18 23 29 28 24 18 8 10 10 9 8 8 9 9 9 23 35 11 7 7 7 7 9 9 9 10 20 14 8 6 6 6 6 8 11
22 19 17 16 15 14 18 24 29 31 29 26 22 9 9 9 12 13 9 8 9 10 12 30 11 10 7 8 13 14 14 21 61 100 100 84 19 8 8 7 7 8 10

GFSMA_500_rhum_021.txt.gz
RH
33 31 29 28 26 23 18 13 8 3 1 1 2 3 4 5 6 7 9 12 15 17 17 18 22 24 25 26 26 27 28 28 28 27 25 23 20 18 16 15 13 10 6
32 29 28 25 17 10 6 5 3 3 4 8 13 16 19 22 23 23 24 27 28 30 29 26 23 20 18 17 16 16 17 18 20 23 27 31 35 38 39 36 29 22 14
36 36 32 23 12 5 4 6 9 14 18 19 22 25 27 31 33 30 25 19 14 12 11 10 9 9 8 8 9 11 14 16 18 21 21 21 21 21 22 24 31 36 42
38 34 17 8 6 7 10 13 14 16 21 22 30 34 31 21 14 11 10 9 9 10 10 11 12 12 11 10 9 8 8 8 8 8 8 8 8 8 11 14 17 20 22
34 16 8 8 10 17 23 27 29 32 34 31 25 14 10 10 10 12 12 11 12 11 12 13 13 15 16 17 16 15 14 13 12 12 12 10 10 10 11 11 14 18 20
13 8 10 13 28 35 38 38 35 28 22 17 14 13 13 13 12 12 11 13 14 15 16 16 17 18 19 19 18 18 18 17 16 14 14 14 14 14 21 20 14 14 20
8 13 31 40 41 40 33 28 22 21 18 15 15 15 14 12 11 10 10 12 13 15 17 17 17 17 17 17 16 15 14 13 13 12 11 10 9 9 14 25 31 42 48
18 33 43 45 38 31 26 24 22 16 14 18 18 14 12 13 13 14 14 14 15 16 18 18 18 18 18 18 17 17 16 14 14 14 14 13 12 12 10 10 25 24 26
44 50 45 36 32 31 28 20 15 18 20 16 15 15 13 12 11 12 12 15 17 18 18 19 19 19 19 18 18 17 16 16 13 12 11 11 11 11 11 10 11 27 40
52 42 35 36 39 30 18 19 18 16 16 16 16 17 16 15 12 9 13 17 19 19 19 19 19 18 17 16 14 13 12 11 10 10 9 8 8 8 9 11 36 35 32
40 37 43 43 28 21 18 18 21 21 20 18 18 17 16 18 21 20 16 17 17 18 18 16 15 14 13 11 10 9 9 9 9 8 8 7 8 9 8 9 11 50 69
37 33 25 22 20 20 23 23 22 22 20 21 22 21 22 22 22 21 18 17 16 15 14 13 10 8 8 7 7 6 6 7 7 7 6 7 8 12 13 11 12 18 64
24 24 21 20 24 26 26 25 25 25 25 24 25 26 26 26 24 22 20 17 14 13 12 10 8 7 6 6 6 6 5 5 7 7 7 8 14 18 20 24 22 21 35
23 22 26 27 27 28 27 27 28 27 26 29 30 30 29 27 24 20 17 14 13 11 9 7 5 5 5 5 5 6 6 6 6 8 10 13 28 38 46 51 48 34 30
27 28 29 30 30 30 31 31 30 31 33 36 35 32 28 23 18 15 13 11 9 9 7 4 4 4 4 5 5 7 7 7 7 7 8 12 20 53 73 61 61 57 43
31 32 33 34 35 36 35 34 36 40 40 39 34 27 21 18 16 14 11 9 7 7 6 4 4 4 4 6 7 5 4 4 4 4 4 5 10 23 74 77 64 85 75
35 36 37 38 38 38 38 43 47 45 40 33 26 21 18 15 12 10 8 7 7 7 8 5 7 6 7 5 4 5 6 7 6 6 6 5 4 8 27 74 79 74 93
40 42 42 41 40 46 49 51 47 40 31 24 20 16 13 11 9 8 8 8 8 12 16 12 9 6 4 5 7 7 8 8 8 7 5 5 5 5 7 30 77 75 80
46 46 43 44 52 54 53 46 36 27 22 17 13 10 8 8 9 10 10 12 18 17 14 9 4 6 8 9 7 8 6 5 6 5 6 6 6 6 5 8 41 73 69
49 43 49 53 54 52 40 29 21 14 10 8 8 9 10 12 13 12 18 22 18 15 9 5 9 9 9 8 8 6 6 12 7 7 8 9 10 8 6 6 12 57 62
45 51 54 54 46 30 19 12 12 12 11 10 11 13 14 14 14 29 24 19 17 9 6 9 9 8 9 9 8 8 13 15 7 7 9 9 12 14 12 7 6 22 62
56 56 50 36 22 14 14 14 11 10 11 13 14 14 15 23 35 25 21 20 8 7 8 11 9 8 9 10 8 12 19 6 6 9 8 8 14 16 17 12 6 9 38
51 40 27 16 14 16 14 12 12 13 16 16 15 17 29 37 27 23 21 8 7 10 17 13 10 10 10 10 16 17 6 6 7 10 8 9 14 15 19 16 8 6 15
30 19 15 17 16 13 13 13 14 16 16 16 24 38 39 30 27 22 8 8 12 14 14 18 21 14 13 21 18 6 7 9 13 15 12 11 20 17 15 15 10 6 6
16 18 18 15 14 13 14 16 15 15 18 28 41 41 33 29 23 7 9 17 17 19 28 22 16 22 25 13 9 10 19 34 37 50 87 80 100 97 42 11 9 7 6
18 16 15 14 15 14 14 14 15 19 27 38 40 34 33 25 8 10 22 22 25 27 18 22 27 16 10 17 23 34 38 60 75 100 100 91 100 97 32 11 8 6 5

GFSMA_500_rhum_024.txt.gz
RH
37 34 34 33 32 33 32 26 19 12 8 6 3 3 6 10 16 18 21 24 27 29 30 27 24 21 17 15 14 13 13 13 13 14 14 15 17 21 26 31 34 34 30
35 36 35 36 37 35 24 13 6 4 3 5 8 12 17 21 26 28 31 29 23 17 12 11 10 10 11 10 10 10 9 9 8 8 7 7 8 10 14 17 19 21 25
38 35 37 39 39 26 13 6 6 9 10 14 18 26 30 33 31 25 18 14 11 10 11 12 12 12 11 11 10 11 12 13 14 14 14 13 10 8 8 8 10 10 11
46 40 40 42 26 9 6 8 18 26 32 34 36 35 29 21 14 12 11 12 13 13 12 12 12 12 12 13 14 15 16 17 18 19 19 18 18 16 14 12 10 9 9
48 43 44 27 8 7 12 26 35 37 36 33 28 23 19 15 14 14 15 15 13 12 12 11 11 11 12 13 14 15 16 16 17 17 17 17 18 18 18 26 23 22 17
47 45 31 8 9 23 37 44 41 34 30 26 23 22 18 15 16 17 16 13 13 13 14 14 13 13 15 15 17 18 18 18 18 18 18 17 17 16 15 14 18 23 34
46 28 7 6 22 41 47 41 34 30 28 26 22 18 17 18 17 15 15 16 16 15 16 16 16 15 18 19 20 20 20 20 20 19 19 19 18 18 17 16 15 14 21
25 8 7 23 38 45 40 33 34 33 27 20 19 17 17 18 19 19 18 16 16 16 17 18 20 22 22 20 19 19 19 18 18 18 18 19 19 18 18 17 16 14 13
11 10 15 31 44 38 37 38 30 24 21 20 21 21 19 19 18 18 18 18 19 19 21 22 22 22 21 20 19 18 17 16 14 14 13 13 14 14 14 14 14 13 13
14 25 42 41 38 35 26 23 21 20 22 23 23 23 22 20 19 18 20 21 21 22 22 22 23 22 20 18 16 14 13 11 10 9 8 8 8 8 8 9 10 11 11
43 42 40 34 27 26 23 22 24 26 25 26 25 25 27 27 27 23 18 20 21 22 22 23 22 19 17 16 14 12 11 9 7 6 6 5 5 6 7 7 8 8 9
43 34 27 27 26 24 25 27 28 29 30 30 30 31 30 29 27 25 23 22 20 21 20 19 18 17 15 13 12 10 9 7 6 5 5 5 4 4 5 5 6 7 8
28 29 28 26 26 29 30 31 32 31 32 33 34 32 31 31 30 30 28 24 21 21 19 18 16 15 12 10 9 7 6 5 5 5 5 5 6 6 6 5 6 8 7
30 28 27 30 31 33 34 34 35 37 38 36 34 33 32 35 36 35 30 25 21 19 17 15 12 9 7 6 5 5 5 5 5 5 6 6 6 7 7 7 8 9 10
28 30 32 34 35 37 39 41 42 40 35 34 34 37 38 38 32 25 20 16 13 14 12 8 6 5 5 6 6 6 5 5 7 9 8 6 5 5 4 4 4 5 7
34 33 36 38 40 44 45 44 39 36 37 41 41 38 32 24 19 14 11 9 8 8 5 5 5 5 6 6 6 7 9 10 7 5 5 6 6 5 5 6 6 5 5
36 38 41 45 48 50 48 44 42 43 43 39 30 21 16 14 11 8 7 7 8 10 10 7 8 7 6 7 10 12 9 5 6 7 8 8 7 8 8 8 8 6 6
40 43 48 51 53 50 48 47 44 38 26 18 14 12 8 7 8 8 8 9 10 12 12 11 8 9 12 14 12 6 5 7 8 8 9 8 7 6 6 6 5 7 5
46 52 54 54 50 51 46 36 23 17 14 10 8 8 8 9 8 9 9 10 12 14 19 21 16 16 15 8 4 6 8 9 8 9 9 8 7 6 12 10 6 6 6
52 57 54 52 48 35 23 18 16 12 8 8 9 9 10 10 9 10 12 14 16 19 23 22 18 12 5 8 11 11 9 8 8 10 9 11 14 16 12 7 6 6 7
58 54 53 35 24 20 17 13 9 9 9 9 10 11 10 9 11 14 20 23 27 27 23 18 8 5 15 13 12 11 9 9 9 10 21 14 7 6 6 6 6 6 7
57 43 25 21 17 13 10 10 10 10 10 11 10 10 7 8 14 24 28 31 28 24 16 6 9 19 24 24 20 14 13 12 14 13 8 7 7 8 8 8 9 11 12
33 23 16 13 12 12 11 12 12 12 12 12 9 6 8 19 28 30 28 26 23 15 8 21 24 29 25 24 17 18 13 11 10 16 12 10 14 11 13 14 15 16 18
21 15 14 15 13 13 14 14 13 13 13 8 6 12 23 28 31 29 24 21 14 6 23 26 27 25 25 21 13 16 32 29 58 93 55 17 52 86 100 100 100 100 54
16 17 15 12 13 12 14 14 13 12 8 6 14 26 32 30 26 24 19 11 5 22 27 29 32 29 18 19 54 65 66 81 98 100 98 64 98 100 100 100 100 80 30
19 13 12 14 14 15 16 15 12 7 6 13 26 31 29 27 22 13 6 5 21 25 26 23 15 19 57 86 92 84 79 80 95 100 100 78 83 86 84 100 98 81 25

GFSMA_500_rhum_027.txt.gz
RH
43 42 38 38 36 35 37 38 38 30 18 11 7 5 5 7 10 13 18 24 29 33 32 28 23 18 14 12 11 10 10 10 11 11 11 11 10 9 8 8 8 10 14
48 41 38 37 35 36 38 40 35 17 8 6 6 8 12 16 17 21 25 31 31 26 19 14 12 11 12 12 13 12 12 13 13 13 12 12 12 13 14 13 12 10 8
46 42 37 38 38 39 41 40 16 6 6 10 21 26 29 34 35 33 30 25 15 12 11 11 14 15 14 13 12 11 11 11 12 12 13 14 15 15 15 16 17 18 16
42 42 40 37 41 46 42 20 6 8 17 30 38 38 34 31 27 24 19 15 14 14 15 16 15 14 12 12 12 13 13 13 12 12 13 14 15 16 17 17 22 32 23
64 58 46 49 48 39 14 5 5 15 33 42 40 34 29 27 25 22 18 16 16 17 18 16 15 14 14 14 14 15 15 15 14 14 15 15 16 17 18 18 18 19 33
62 57 53 47 32 17 9 6 22 36 39 39 35 32 30 26 22 20 19 19 18 17 17 17 17 17 17 16 15 15 14 17 19 19 19 18 17 18 19 20 20 20 19
56 50 45 30 18 12 9 18 39 43 38 36 36 34 30 24 22 20 21 21 20 20 20 20 21 20 20 19 19 18 18 18 19 20 21 21 21 21 20 20 20 20 20
52 42 27 19 13 10 18 38 41 38 34 32 28 24 22 22 22 23 24 25 25 26 26 26 26 26 24 23 24 24 24 24 23 22 22 21 20 19 17 16 16 16 17
34 23 16 11 20 38 43 40 35 29 24 22 21 22 22 25 26 27 27 28 28 28 28 28 28 28 28 27 27 26 25 24 22 21 20 18 17 16 15 14 13 12 11
20 13 14 31 43 42 31 28 27 24 23 26 28 27 27 25 23 22 25 28 28 27 27 27 28 28 26 25 24 24 23 21 20 18 17 16 16 15 14 12 11 10 9
12 22 44 47 37 29 29 28 26 26 28 30 30 33 34 35 33 27 20 23 26 30 30 28 27 26 25 23 21 19 17 15 13 12 11 10 9 9 9 9 9 9 8
39 49 44 32 31 30 29 30 34 33 34 36 36 35 34 33 32 32 30 28 25 24 24 23 22 18 15 11 8 6 5 4 4 4 4 4 4 4 4 4 4 4 5
51 42 31 32 30 30 33 34 34 37 38 39 40 40 39 38 36 34 31 26 23 21 18 12 8 6 5 4 4 4 4 4 4 4 5 5 5 5 5 5 5 5 5
41 32 32 32 35 37 35 37 39 41 43 45 42 40 40 40 35 28 22 18 14 8 5 5 5 5 5 5 5 5 5 4 4 4 5 6 6 7 6 6 6 5 5
31 32 36 39 36 37 39 42 45 48 44 42 43 40 32 23 16 10 8 7 6 5 4 5 5 5 5 5 5 4 4 4 4 6 7 7 8 9 9 10 9 8 7
40 46 36 36 39 42 48 50 48 43 44 39 29 21 13 10 9 8 8 7 7 6 5 5 5 5 4 4 3 4 6 7 10 12 12 12 11 9 7 6 5 4 4
40 35 38 42 44 52 53 48 45 42 30 20 12 11 11 10 9 7 7 7 7 8 7 5 5 3 2 2 4 9 13 16 15 11 7 6 5 6 6 6 7 8 8
45 40 43 46 54 56 49 46 36 24 13 12 13 12 10 7 7 7 7 7 7 7 5 4 3 3 6 10 15 16 15 9 6 8 11 10 11 11 10 9 8 8 8
42 44 50 57 59 52 43 29 19 14 14 14 12 9 8 7 8 8 7 6 5 4 5 9 7 11 15 17 15 10 5 9 18 19 20 20 14 11 10 9 9 10 8
46 50 61 59 51 36 27 17 16 17 15 11 9 9 9 10 9 8 6 4 5 8 14 18 20 18 17 14 6 9 15 20 21 24 18 15 15 16 13 10 9 9 9
50 64 59 47 33 25 18 19 18 13 11 10 11 13 12 11 8 4 5 8 16 20 23 23 21 18 11 5 18 21 20 18 20 23 17 19 17 16 16 13 9 7 6
68 58 42 31 25 22 21 15 12 10 10 13 15 13 13 9 4 6 14 21 26 28 25 21 13 5 7 24 23 22 15 15 23 42 19 20 14 19 12 10 10 10 9
54 36 31 26 23 17 13 11 11 14 17 18 16 17 9 4 8 16 20 24 23 17 7 5 5 20 24 19 11 13 47 75 90 100 58 64 83 68 35 20 35 65 75
33 29 26 21 17 13 12 14 15 19 18 19 21 9 5 10 17 20 18 12 6 6 7 21 31 25 12 26 46 61 65 69 85 100 100 85 63 54 69 91 99 95 100
29 26 20 18 15 14 15 17 20 19 22 23 9 7 15 15 11 8 7 6 10 23 32 34 21 15 56 85 82 78 84 86 91 92 100 77 88 64 80 93 100 94 100
25 22 18 15 15 16 20 25 24 28 24 10 9 14 9 7 8 9 14 18 25 29 22 19 48 100 100 100 99 98 93 76 78 76 72 81 86 70 100 100 100 100 100

GFSMA_500_rhum_030.txt.gz
RH
57 57 55 53 51 42 38 37 37 39 40 40 22 9 7 8 10 11 15 19 22 25 29 32 34 34 30 24 19 14 12 11 11 11 11 11 11 11 11 11 10 10 10
46 42 45 49 52 47 39 36 38 41 43 28 8 7 11 19 24 32 37 40 39 38 36 33 28 21 16 13 11 12 13 13 14 14 14 14 13 13 12 12 13 13 13
42 36 30 35 43 44 40 36 33 37 34 9 4 10 21 28 32 37 37 34 32 29 26 20 14 12 11 13 15 17 16 14 13 13 12 12 12 12 12 11 11 12 13
32 52 49 49 43 34 33 33 42 32 14 7 7 17 27 34 38 37 34 30 27 25 22 20 18 17 16 16 17 17 15 14 14 13 13 13 14 15 15 14 15 15 15
48 62 64 61 56 52 49 40 25 16 12 10 17 37 42 40 37 35 33 30 27 24 21 20 19 19 19 18 18 17 17 17 17 17 16 15 14 15 15 17 18 18 18
62 60 57 54 51 47 32 23 19 14 9 12 31 42 39 37 36 33 29 26 25 24 23 22 22 22 22 22 22 22 21 22 21 21 22 22 22 20 17 17 19 20 20
53 51 50 46 40 29 23 18 12 12 15 31 40 38 35 32 27 24 23 23 23 24 26 27 26 25 25 25 25 25 24 23 23 22 22 22 23 23 23 23 22 21 21
45 46 42 34 26 20 16 11 14 31 40 42 37 32 27 25 24 26 29 30 30 30 30 30 30 31 30 30 32 33 32 30 29 27 26 25 24 24 24 24 24 23 22
39 37 30 23 18 12 21 43 46 41 33 31 29 28 30 35 36 34 32 34 34 35 35 35 36 35 34 33 32 32 31 29 27 26 25 24 23 23 22 22 22 22 21
28 26 20 14 15 30 43 44 38 33 29 27 28 36 40 38 34 33 34 36 36 35 35 36 36 34 32 28 24 20 16 14 12 11 11 12 12 14 15 16 17 17 18
24 18 13 22 40 48 41 32 32 30 29 38 40 35 34 34 34 33 30 31 36 37 34 30 23 18 12 8 6 6 6 5 5 5 5 5 4 4 4 4 4 4 4
14 13 30 47 52 42 33 32 32 34 39 36 34 37 38 39 39 36 32 29 26 26 21 14 9 8 7 6 6 6 6 5 5 5 5 4 4 4 4 4 4 4 4
16 38 49 52 42 34 32 36 40 38 36 38 42 45 43 39 36 33 29 25 22 17 11 7 7 7 7 6 6 6 5 5 4 4 4 4 4 4 4 4 4 4 4
40 53 54 40 33 38 48 43 40 40 42 47 50 44 39 35 28 19 16 14 10 8 8 8 8 7 6 6 5 5 4 4 4 4 4 4 4 3 3 2 2 2 2
58 55 40 46 67 56 50 48 42 48 55 53 44 38 30 21 16 14 13 12 10 9 7 6 6 6 6 6 5 5 4 4 3 3 3 2 2 3 4 4 4 4 4
64 51 56 72 65 68 44 45 54 57 51 42 34 25 19 16 14 13 11 10 9 9 7 7 6 6 6 5 4 3 3 3 4 6 8 8 9 10 10 10 10 10 9
72 79 79 72 69 47 53 60 58 47 38 28 22 18 16 13 12 11 9 8 8 8 8 7 7 7 5 3 2 3 5 9 12 17 18 17 14 11 8 6 6 5 5
79 83 87 75 49 68 59 59 44 33 24 20 18 16 13 11 10 9 8 8 9 10 11 9 6 3 3 4 8 10 15 19 18 16 13 6 9 17 16 15 14 14 11
92 94 52 64 64 60 57 42 28 22 19 19 16 12 11 10 9 10 11 12 12 12 7 4 4 8 11 14 13 15 14 12 9 6 14 22 24 19 16 18 19 16 13
85 58 76 54 66 53 37 28 22 21 19 16 13 11 11 12 12 13 13 14 10 5 7 11 13 14 12 9 6 5 4 4 13 23 23 21 16 12 12 12 14 15 13
69 72 55 72 51 34 29 24 23 19 14 12 12 13 13 15 16 16 13 6 7 9 8 7 7 6 6 5 6 10 18 16 12 15 23 57 41 44 30 17 13 12 10
70 64 74 48 33 30 25 23 16 14 13 13 14 15 17 19 17 8 5 9 8 7 8 8 8 14 25 29 25 16 27 36 56 87 91 100 99 88 77 66 43 24 20
76 71 46 35 31 28 23 16 15 15 15 18 18 20 20 15 6 5 8 7 8 12 17 21 26 28 20 17 41 76 86 86 84 93 85 94 99 97 93 98 63 38 44
68 43 36 33 30 23 17 16 16 17 20 20 23 21 12 5 7 8 8 10 14 19 25 26 21 24 62 84 86 89 91 86 92 95 47 66 80 65 68 72 58 55 57
43 38 35 31 23 18 18 19 19 18 19 23 20 10 6 8 7 9 12 14 19 23 23 35 80 95 99 100 100 98 100 100 99 97 67 79 86 82 84 85 70 75 90
41 38 32 24 20 20 20 20 18 17 22 18 8 6 8 6 12 15 14 18 19 29 88 100 100 100 100 100 98 92 91 97 100 100 97 100 98 91 100 90 84 97 100

GFSMA_500_rhum_033.txt.gz
RH
64 60 57 49 42 38 41 47 50 47 40 36 33 36 37 22 9 6 9 12 18 24 29 32 36 38 38 36 35 33 31 27 23 19 14 12 11 11 11 12 12 12 12
61 49 43 41 40 37 34 40 41 44 41 38 32 36 27 9 6 10 18 28 31 36 37 36 34 33 31 27 22 17 14 13 12 12 13 14 15 16 15 15 14 14 15
44 45 40 35 45 46 37 34 39 35 32 34 42 28 14 12 15 21 29 35 38 38 37 35 31 28 26 23 20 17 16 16 16 16 17 17 16 15 14 13 13 13 13
45 47 40 48 62 60 56 53 51 46 43 36 24 18 14 11 17 29 37 41 40 38 36 33 29 26 24 22 21 20 19 19 18 18 18 18 17 17 16 16 16 15 14
44 38 38 54 56 56 54 48 44 35 28 25 21 15 13 20 31 36 40 38 36 32 29 26 24 23 23 23 23 23 23 24 23 23 22 21 21 20 20 20 19 19 18
32 42 54 55 53 49 45 38 34 30 26 20 15 15 22 36 41 38 34 30 28 26 25 26 29 31 32 31 29 28 27 27 26 26 25 25 24 24 24 23 22 22 22
26 30 39 44 44 39 34 29 24 20 13 14 31 44 45 43 36 31 28 27 30 37 40 38 33 32 33 32 32 31 30 30 30 29 29 28 29 29 29 29 28 27 26
30 36 38 37 32 30 26 20 12 12 24 43 45 40 35 31 29 29 35 40 41 37 36 37 36 36 36 36 37 36 36 36 35 34 33 32 31 31 30 29 29 28 28
32 36 33 26 28 26 18 11 12 34 42 44 43 39 38 38 45 47 43 38 39 41 41 41 41 40 39 37 36 33 29 26 24 21 18 16 14 13 11 11 13 15 18
41 34 27 28 21 16 10 16 40 50 45 38 36 36 47 58 55 47 42 44 46 44 41 38 36 32 27 23 19 17 14 11 9 8 7 7 7 7 6 6 6 6 6
37 28 26 17 15 11 18 37 51 45 36 35 43 57 55 52 46 47 46 46 43 37 31 25 20 16 13 12 11 10 9 9 9 8 8 7 6 6 6 6 5 5 5
27 24 16 17 16 26 45 52 42 37 51 65 60 58 54 48 55 54 47 39 33 28 21 15 13 12 11 11 10 10 9 8 7 7 7 6 6 6 5 5 4 4 4
20 15 19 19 29 49 55 44 50 73 71 71 68 51 55 60 54 42 34 29 24 17 12 10 11 11 10 9 8 8 7 7 6 6 6 6 5 5 4 4 4 4 3
16 22 19 28 48 60 55 61 73 72 76 63 55 62 59 50 37 27 20 15 12 12 12 10 9 8 8 8 7 7 7 7 7 6 6 7 6 6 5 4 4 4 3
21 18 27 50 62 69 72 74 79 82 60 59 61 60 44 30 22 18 18 19 16 12 8 9 9 9 8 7 7 7 7 6 6 6 6 5 4 3 3 3 3 3 3
23 28 54 64 66 73 78 84 75 57 60 61 59 39 27 21 20 21 17 13 11 10 10 11 9 7 7 8 8 7 5 4 4 4 4 5 5 7 7 7 7 7 6
33 51 62 65 77 89 88 68 66 58 67 55 36 27 23 23 20 15 13 10 11 14 11 7 7 8 8 6 4 3 4 5 6 8 11 12 13 13 12 12 11 11 11
47 59 67 82 93 86 76 69 60 71 51 34 29 25 24 17 15 11 11 14 12 10 10 10 8 5 4 4 4 4 4 5 6 6 7 6 5 5 5 5 5 5 6
59 75 86 97 83 74 70 66 73 47 35 31 27 23 17 13 12 15 13 10 10 10 9 5 4 5 5 5 5 5 7 8 12 16 20 15 15 14 15 17 18 17 17
77 91 94 82 75 63 73 72 46 36 33 29 22 18 15 16 15 12 11 10 9 5 4 5 5 5 7 12 20 21 21 23 21 22 20 18 14 12 13 22 36 40 41
96 93 78 64 54 79 69 46 38 35 28 22 20 19 17 13 12 12 12 8 4 5 6 6 9 14 18 18 18 33 50 61 78 91 87 87 69 72 78 71 58 55 59
81 54 55 56 82 68 45 40 35 28 23 21 19 14 14 14 13 12 6 4 6 6 12 13 16 16 18 52 80 85 92 90 96 100 62 97 80 81 84 80 76 71 59
53 54 58 86 65 46 43 35 28 23 20 16 15 16 15 14 11 4 4 6 7 14 15 16 15 48 74 85 86 95 100 100 100 89 63 97 84 76 83 82 74 66 66
54 68 87 60 47 43 33 26 22 20 18 16 17 16 14 9 4 6 6 7 12 14 16 24 75 81 82 87 86 88 90 100 100 99 79 94 91 100 100 100 82 71 62
80 80 58 50 43 30 26 23 19 11 11 13 16 14 7 4 6 6 8 12 14 17 44 87 86 86 91 93 86 82 89 93 100 100 86 98 98 92 100 93 84 86 83
72 56 52 40 30 27 24 9 9 10 13 14 12 6 4 7 6 12 13 14 17 65 89 97 99 100 97 96 88 86 85 87 90 100 96 96 100 93 100 90 75 37 32

GFSMA_500_rhum_036.txt.gz
RH
53 59 61 61 52 45 40 39 41 39 39 40 39 40 40 33 30 30 26 18 14 13 16 25 32 38 37 36 35 34 32 30 28 24 22 20 20 18 16 13 12 12 12
63 70 63 50 44 43 37 43 57 54 58 54 40 33 33 35 35 26 19 14 13 19 28 37 42 41 38 35 31 28 26 25 24 21 18 16 14 14 13 14 15 16 15
77 64 53 44 48 42 46 57 61 62 60 58 50 42 34 27 24 22 16 13 15 21 33 42 42 40 38 36 32 29 26 24 22 21 21 21 20 19 19 18 18 18 17
65 56 45 46 42 38 46 56 58 55 52 50 39 34 32 30 26 21 18 24 32 38 40 39 37 33 28 25 24 23 23 23 23 23 23 23 23 24 24 23 21 20 19
57 49 46 43 37 50 52 51 52 49 47 40 34 27 22 18 14 17 28 36 40 39 36 31 28 27 28 31 35 37 37 36 34 32 31 30 29 28 27 26 26 25 24
53 48 45 26 26 35 43 44 42 38 31 26 20 14 14 26 41 46 42 37 34 32 31 33 38 43 44 42 39 38 37 36 35 34 34 33 32 32 31 30 29 29 28
52 48 35 28 38 40 39 32 29 30 22 14 12 21 32 42 43 40 38 37 37 43 49 49 47 43 42 42 42 41 39 38 36 36 35 34 35 35 35 34 34 33 32
51 49 45 32 33 36 31 28 28 19 17 12 13 33 46 43 42 37 36 42 52 55 51 46 45 46 48 46 43 39 37 34 32 30 28 27 25 25 26 27 28 30 31
51 51 55 50 42 34 28 26 16 19 15 13 26 39 44 41 39 43 52 52 52 50 49 53 55 52 46 40 35 31 28 24 21 18 15 13 12 11 10 10 10 10 10
52 50 48 48 42 31 25 16 21 16 18 34 40 44 45 50 52 47 57 57 54 56 59 54 46 38 31 27 23 19 15 13 12 12 11 11 11 10 10 10 9 9 9
49 44 40 41 31 24 17 22 19 22 38 48 48 50 63 66 65 56 50 58 60 57 47 36 28 22 19 17 16 16 15 14 12 10 9 9 8 8 7 7 6 6 6
44 39 35 31 22 19 24 21 32 43 56 60 62 68 72 73 75 61 56 53 46 43 35 23 18 19 19 17 15 12 11 10 10 9 8 8 7 6 6 6 5 5 5
40 30 30 22 22 24 24 35 48 57 63 70 77 78 76 67 62 60 57 49 41 34 22 15 17 17 15 12 12 12 11 10 8 7 6 6 6 5 5 5 5 4 4
26 29 23 26 24 29 35 49 56 66 74 76 79 80 70 63 63 61 46 39 28 17 17 17 16 14 13 12 10 8 8 7 6 6 6 4 4 3 3 3 3 3 3
26 26 27 25 33 35 47 58 65 71 80 83 78 70 64 70 58 42 34 26 23 20 16 15 14 13 11 9 8 7 7 6 5 3 2 2 2 3 3 4 3 4 4
28 27 30 35 34 46 56 62 76 83 86 75 66 69 74 54 40 34 29 25 22 19 16 14 12 8 7 7 6 5 3 2 2 3 4 4 3 3 3 3 4 5 6
34 38 36 33 47 54 64 82 87 82 72 62 76 74 50 40 35 29 24 21 18 14 10 7 6 6 6 4 3 2 3 4 4 10 16 15 15 13 8 6 5 4 5
44 34 38 49 62 76 88 88 72 62 62 78 71 47 41 34 26 22 18 13 8 6 7 7 6 3 2 3 4 4 7 14 17 18 18 18 18 16 16 18 16 16 12
40 40 60 78 90 91 76 57 61 60 80 69 47 41 29 23 17 10 7 7 7 6 5 4 3 3 4 5 7 13 15 24 50 64 63 65 55 65 62 64 62 38 17
40 73 91 93 89 55 57 60 62 81 60 48 37 26 14 8 7 6 6 6 5 4 3 3 4 5 7 11 14 37 54 73 79 68 60 61 65 67 74 70 75 80 72
84 98 94 87 50 60 59 67 82 56 50 34 27 19 10 7 7 7 6 5 4 3 4 5 6 9 12 28 57 67 73 78 99 66 73 95 66 77 79 68 67 70 64
98 93 78 51 61 58 76 78 57 48 31 29 22 9 9 9 7 6 5 4 4 6 6 9 9 14 56 63 70 74 80 87 90 91 77 100 77 94 89 95 91 92 79
92 56 56 61 59 81 70 58 42 32 30 15 10 11 10 8 7 5 4 4 6 9 12 11 27 57 62 70 75 81 84 90 95 82 63 90 90 99 93 100 89 87 90
53 64 61 66 84 69 58 42 34 31 21 17 14 12 9 8 6 4 4 5 9 13 13 39 63 66 71 72 74 72 72 84 92 89 61 89 89 95 100 91 82 94 94
70 59 76 82 72 55 41 36 32 25 21 15 10 9 10 8 4 4 6 7 14 17 56 70 67 74 80 80 76 73 77 81 88 100 88 97 86 94 100 85 94 84 37
63 82 83 71 55 40 38 32 25 19 14 10 9 12 9 4 6 6 6 13 25 69 76 78 87 90 89 90 84 79 77 88 76 86 94 74 59 33 95 67 49 48 68

GFSMA_500_rhum_042.txt.gz
RH
79 71 62 60 61 59 59 62 61 48 47 45 47 56 58 58 57 54 48 42 37 35 32 31 29 26 23 20 19 18 18 22 28 32 35 35 35 34 32 30 27 24 21
65 65 58 60 62 63 68 63 57 46 47 42 41 54 54 54 53 48 40 33 27 22 18 16 14 12 12 14 18 23 28 34 35 36 35 34 35 35 34 31 28 25 23
72 67 65 65 68 75 72 62 51 47 46 38 43 51 52 49 42 35 30 22 19 13 8 10 15 24 33 40 41 41 39 37 34 31 29 29 28 28 27 26 26 26 26
71 69 74 78 84 84 66 57 51 52 34 40 51 48 42 39 34 34 22 21 19 12 14 22 28 34 36 38 39 37 34 32 32 33 36 36 36 37 37 38 38 35 32
79 75 83 84 81 77 64 60 57 51 28 26 32 39 39 31 33 24 20 21 19 17 24 32 37 40 41 41 41 41 41 42 45 48 50 50 48 47 46 44 42 41 40
85 78 89 90 82 76 67 64 57 49 36 32 34 38 34 32 28 19 25 22 21 24 30 36 39 40 41 40 39 39 41 43 41 37 39 40 40 41 43 45 45 43 42
93 82 88 86 82 79 74 65 55 51 46 46 48 42 36 28 19 26 26 22 25 30 33 33 34 35 37 39 37 34 33 37 42 46 48 48 48 48 46 44 42 40 39
87 85 89 84 77 74 72 66 56 52 47 44 45 40 29 20 26 27 25 29 32 36 38 40 42 42 38 37 42 50 53 52 52 52 50 48 46 43 40 38 35 33 31
90 86 88 86 80 70 69 68 59 51 46 40 36 30 21 26 28 28 34 35 38 45 49 50 47 51 57 58 57 55 55 54 52 50 46 43 41 38 35 31 26 23 20
79 96 88 79 73 63 65 67 56 47 44 40 29 22 28 27 26 30 39 42 50 52 52 62 69 67 63 61 60 57 54 50 47 44 40 37 32 27 23 20 18 17 16
65 58 61 62 62 57 63 57 45 45 43 29 24 28 28 31 33 34 38 47 56 72 73 71 66 65 63 60 55 52 48 43 37 32 27 25 23 21 20 19 18 17 16
61 49 47 49 56 56 50 42 42 36 27 26 30 32 35 36 39 38 37 56 65 67 64 62 62 64 57 52 46 38 28 21 18 18 18 19 19 19 19 20 19 19 18
42 46 54 53 49 41 39 32 31 27 29 31 37 38 39 40 42 57 59 57 56 54 48 58 59 53 45 34 24 16 16 16 18 19 20 21 20 19 18 16 16 16 15
54 55 54 41 35 30 29 32 29 32 35 41 41 43 41 52 65 64 57 49 38 48 55 54 50 41 30 21 20 21 23 25 23 18 14 11 8 7 5 4 4 4 4
37 28 25 23 24 30 36 34 35 42 45 45 46 45 63 71 62 56 50 54 53 47 48 44 33 27 23 21 20 20 19 15 10 7 5 3 2 2 2 3 3 3 3
61 47 32 30 32 40 39 42 51 50 50 48 54 73 76 60 57 57 60 61 59 51 40 32 28 25 23 20 14 10 8 6 4 3 2 3 3 4 7 15 28 38 44
82 40 33 37 42 42 51 59 59 57 51 66 83 76 57 60 64 64 63 60 47 37 34 33 29 22 12 10 10 8 5 2 3 4 6 9 20 30 36 45 46 42 41
76 38 44 45 48 62 68 72 62 54 88 90 64 60 64 67 66 65 58 45 39 37 34 21 14 12 12 11 9 4 3 5 7 20 48 40 47 56 62 58 55 56 58
43 50 50 58 70 83 86 58 72 97 90 59 68 65 70 68 65 57 44 43 39 25 18 14 13 14 12 7 3 4 6 12 45 51 59 55 61 60 58 54 49 49 55
50 56 72 85 95 90 55 92 99 79 63 70 68 72 71 67 56 46 46 37 26 18 14 15 15 10 5 3 4 7 19 53 56 65 68 63 58 63 66 52 55 58 57
66 88 97 100 79 69 99 98 69 72 68 72 74 73 67 55 50 50 37 25 18 15 16 12 8 4 4 5 12 26 51 57 81 67 68 82 68 77 65 66 66 64 28
100 100 100 61 96 99 96 68 75 67 76 72 73 67 56 56 50 33 22 19 16 15 10 7 4 5 6 18 54 60 57 63 73 85 60 84 79 84 70 64 64 18 16
100 89 74 100 100 81 75 70 74 77 72 77 64 62 61 42 27 22 19 17 14 8 5 5 5 8 18 59 58 68 68 65 69 66 51 38 60 78 75 65 30 16 15
74 96 100 94 74 78 67 81 75 75 75 67 68 54 32 25 20 20 16 14 10 5 6 6 10 24 57 58 60 57 56 62 44 30 32 17 18 49 82 62 18 28 60
99 96 74 77 67 78 82 72 77 70 71 65 39 31 24 19 17 16 14 10 5 6 8 17 48 60 59 58 49 43 22 19 16 24 13 14 12 35 94 34 30 55 78
68 66 72 66 87 74 74 79 72 71 50 38 30 23 20 16 15 13 8 5 6 11 39 78 73 67 59 32 19 12 12 13 16 22 17 16 13 30 84 31 58 79 100

GFSMA_500_rhum_045.txt.gz
RH
30 27 59 84 78 71 65 63 60 59 60 62 50 46 46 41 53 52 47 48 40 36 32 25 20 17 12 9 8 8 9 10 11 13 16 20 25 28 31 33 35 35 32
34 32 37 71 72 67 67 66 63 65 65 60 47 48 42 39 48 50 46 42 34 36 26 22 20 16 12 12 15 18 22 28 31 32 31 28 28 31 33 33 33 34 35
35 52 54 70 71 70 69 69 70 75 65 57 50 49 32 47 49 49 42 34 37 37 25 25 24 17 14 16 19 21 24 27 31 34 35 35 35 35 34 34 33 32 30
33 97 81 75 80 74 76 82 85 79 62 55 54 45 26 26 31 38 39 35 40 33 24 27 23 18 18 21 25 28 33 37 38 39 40 40 39 39 40 42 47 48 46
32 47 96 86 84 84 88 87 86 75 63 60 56 47 36 33 35 38 38 37 36 25 26 27 20 20 22 25 28 31 34 37 39 40 40 41 42 44 46 46 44 44 46
28 41 81 96 93 86 92 93 89 76 70 66 57 52 50 48 49 49 46 36 24 24 28 23 23 26 28 31 32 32 34 34 34 36 36 34 32 32 35 38 40 44 47
28 45 71 100 96 91 94 89 82 79 75 69 60 54 49 47 44 42 38 25 23 29 25 25 28 28 29 31 32 33 31 28 27 32 38 43 45 48 49 50 50 51 51
70 76 90 96 96 90 93 91 82 74 71 70 65 58 50 45 43 41 27 23 28 27 29 30 31 33 33 30 28 32 39 44 47 47 48 50 50 50 49 49 48 48 47
74 72 90 97 97 97 96 94 89 78 64 67 68 56 50 47 48 35 25 29 30 32 33 35 35 33 36 43 49 52 52 52 52 50 48 46 45 43 43 42 41 41 40
59 60 72 88 88 99 96 96 82 69 61 62 60 50 48 53 40 26 30 33 35 38 37 38 49 56 55 56 55 49 44 42 42 48 50 49 47 44 42 40 39 37 35
74 69 53 61 78 76 75 71 63 56 58 56 48 41 42 34 26 32 36 39 40 40 43 51 59 58 56 46 42 42 51 51 49 46 40 35 31 29 26 26 26 25 25
71 76 72 72 73 69 52 49 52 56 51 42 35 32 31 29 35 37 39 43 44 60 60 59 55 45 46 55 55 53 49 43 38 31 27 26 25 25 26 26 25 24 23
77 76 70 77 59 47 48 56 57 43 37 30 29 31 35 41 44 45 44 44 48 63 59 52 53 58 54 48 43 41 37 34 32 31 30 28 25 19 13 11 10 8 8
63 70 54 39 47 60 64 53 31 26 30 34 34 38 48 50 51 49 50 54 59 55 44 50 56 50 44 41 39 38 38 35 27 20 16 14 13 12 10 8 5 3 2
49 66 62 61 44 40 33 32 31 34 39 39 44 55 58 57 53 61 70 63 48 30 48 54 47 44 40 40 39 32 27 25 20 16 15 12 7 4 4 2 3 3 4
61 73 82 83 86 79 51 37 39 43 42 53 64 69 60 56 71 71 56 45 58 58 47 47 43 43 42 37 31 28 21 16 15 10 6 5 4 3 3 6 23 34 35
78 92 93 90 97 84 44 44 46 54 68 76 76 59 68 76 67 54 56 65 60 53 45 46 47 45 36 28 20 17 12 9 8 6 4 4 4 9 27 32 49 53 52
97 83 74 82 98 60 46 50 70 87 88 77 64 78 81 65 59 64 68 60 54 51 48 43 35 24 16 12 8 6 7 7 5 4 5 9 31 35 50 49 50 52 53
96 76 73 87 81 48 55 84 94 95 72 78 86 81 64 65 71 68 59 56 54 50 37 24 9 6 6 6 6 7 6 4 5 8 19 46 38 56 59 55 56 54 54
78 74 87 88 52 64 97 98 98 72 91 93 73 68 70 75 67 61 57 54 42 31 19 8 7 6 6 7 5 4 4 6 26 50 53 51 45 64 67 60 57 55 54
79 92 87 55 79 100 100 94 80 97 93 71 71 76 74 66 63 59 48 37 32 20 10 7 6 6 7 4 4 5 8 45 67 72 56 85 56 68 66 60 54 58 62
95 72 60 98 100 100 83 96 100 77 74 72 81 70 69 65 56 41 35 20 10 9 7 7 7 5 4 4 6 13 48 58 70 94 56 77 61 57 45 32 33 35 61
61 84 99 100 96 88 100 92 73 74 79 75 69 72 64 49 41 33 14 11 9 7 9 6 4 4 5 14 33 48 62 64 63 66 44 35 28 21 19 16 16 15 54
98 99 98 94 100 96 70 76 72 80 70 72 72 60 47 40 24 10 7 7 6 8 4 4 5 10 37 50 46 46 50 27 19 15 16 16 16 15 17 13 11 12 63
98 96 100 98 69 73 71 78 74 69 73 68 56 48 34 17 11 8 7 6 5 3 4 7 28 50 43 28 20 17 18 22 25 28 31 29 32 29 26 19 14 32 45
100 95 63 71 72 82 79 69 70 74 65 56 45 28 19 11 8 7 6 4 3 4 14 47 47 25 23 24 24 22 18 21 30 40 40 24 44 36 35 26 31 68 42

GFSMA_500_rhum_048.txt.gz
RH
34 32 31 31 31 51 78 81 78 69 64 62 59 56 60 56 45 45 41 46 46 46 41 35 38 32 25 25 22 17 14 14 16 18 19 20 18 16 16 19 24 28 30
36 37 34 31 37 38 55 77 74 71 66 62 59 63 63 55 49 42 41 44 46 44 39 36 43 39 26 25 22 19 16 16 16 18 19 21 24 29 34 37 36 34 33
38 39 38 31 35 53 59 72 72 71 69 65 63 74 65 54 51 35 34 41 40 41 38 36 43 36 26 26 23 18 18 18 19 21 23 25 28 30 32 36 37 37 36
41 29 23 24 29 96 81 67 76 77 78 82 87 81 64 58 54 45 34 35 36 40 44 48 38 27 25 28 22 21 22 23 24 26 28 30 32 34 36 38 39 40 41
39 32 20 18 24 68 91 78 80 82 86 88 88 79 68 65 57 53 52 52 52 53 50 41 29 24 29 26 24 25 26 27 28 30 30 30 31 32 32 32 34 36 35
47 43 36 20 21 34 50 86 88 85 90 92 91 83 77 72 64 56 53 51 48 46 46 36 25 28 29 28 28 29 29 31 31 29 28 28 28 29 29 31 35 38 40
68 62 61 58 33 36 46 71 98 90 86 93 87 81 76 73 70 63 54 50 49 52 47 32 29 31 31 30 30 32 32 31 34 38 42 44 44 43 42 42 42 43 44
64 63 55 64 80 64 88 86 96 98 92 90 92 90 81 68 67 65 58 51 53 50 36 29 33 33 32 33 33 34 36 41 45 44 36 26 22 20 20 22 23 25 28
70 57 68 72 76 89 92 89 92 98 98 93 93 88 78 66 61 58 52 46 48 37 30 35 36 35 36 36 39 43 48 50 42 25 19 23 28 30 32 32 32 32 32
71 69 70 80 89 70 61 65 69 74 80 91 93 86 66 58 56 52 42 38 32 32 38 39 41 41 43 45 50 53 50 36 30 37 44 42 36 34 32 31 30 29 29
70 80 74 70 72 71 76 74 75 79 76 62 52 51 56 56 46 39 33 30 35 42 42 44 46 49 53 58 57 47 32 34 44 43 38 36 35 34 33 32 33 33 32
62 82 79 78 77 76 77 71 73 69 58 50 56 64 48 36 31 25 28 38 43 52 50 51 55 60 58 49 36 39 48 46 41 40 38 37 36 35 36 35 32 28 25
52 74 81 78 92 90 70 81 53 45 61 71 46 29 26 29 32 34 42 44 47 53 57 68 62 54 39 38 50 48 43 42 41 40 40 38 34 28 24 18 13 10 9
38 62 82 71 67 74 71 61 66 52 49 55 45 36 36 40 41 51 56 53 52 56 63 60 50 51 57 52 48 45 42 41 38 30 25 20 16 10 6 4 4 4 3
45 56 72 66 61 72 75 80 87 97 92 61 40 46 47 49 70 74 64 60 59 52 45 44 55 58 53 48 44 42 34 21 14 11 7 6 5 4 4 3 3 3 3
47 65 75 72 75 92 99 100 100 99 94 51 51 50 58 79 80 66 69 75 62 36 27 52 52 48 45 42 36 27 18 10 7 6 5 4 4 3 3 2 2 3 6
46 71 79 76 77 99 99 88 83 95 69 51 53 72 85 80 69 80 80 53 53 66 56 52 47 42 35 23 14 8 6 6 6 5 4 4 3 2 3 3 7 26 35
52 82 80 83 97 100 90 79 91 86 57 59 84 88 82 73 88 74 53 70 69 61 52 45 41 34 13 9 8 7 6 6 4 4 3 3 4 5 22 24 33 40 55
58 84 87 84 100 97 81 90 99 63 73 92 93 81 83 90 64 66 74 64 59 54 49 41 31 10 8 7 7 6 5 4 3 3 4 7 26 47 49 49 42 48 57
76 86 87 89 88 86 89 100 70 92 98 98 84 94 81 67 72 72 64 58 55 47 38 19 11 10 7 6 5 4 3 3 4 8 13 47 47 51 59 59 48 52 55
91 94 98 92 83 96 96 77 98 99 97 98 95 72 70 74 67 61 55 52 46 29 17 12 8 6 5 5 4 3 3 5 24 47 41 65 50 56 54 48 50 43 39
100 97 94 83 100 92 84 99 99 97 100 74 74 76 72 66 58 56 51 34 20 14 9 7 6 5 5 4 3 5 23 41 48 74 49 57 42 33 35 26 28 30 21
99 95 97 98 68 100 98 98 97 81 73 78 79 68 61 58 56 42 24 14 9 7 6 5 5 5 4 8 24 33 34 23 22 22 16 17 17 19 17 18 16 16 15
94 100 73 88 99 99 96 84 69 76 83 72 65 56 55 50 30 19 11 9 8 7 6 5 5 10 23 25 16 12 13 12 22 29 22 10 26 32 35 40 33 26 26
73 92 99 98 96 83 70 74 83 75 70 58 58 56 39 25 19 13 10 8 7 6 4 8 23 22 15 15 14 11 12 12 13 26 39 12 28 26 31 47 34 24 27
99 98 93 75 66 73 77 75 71 62 58 53 45 31 26 20 16 11 8 7 6 5 16 24 20 19 17 18 17 16 14 14 15 17 44 26 39 29 26 54 43 30 30

GFSMA_500_rhum_051.txt.gz
RH
34 36 36 34 32 29 27 29 30 47 70 81 77 69 66 61 58 61 63 49 46 42 42 46 45 42 36 41 43 33 27 25 22 18 16 16 18 20 21 22 23 24 22
31 36 35 35 35 32 30 28 35 39 43 64 71 69 66 62 59 68 66 53 48 33 45 47 46 42 38 43 43 33 26 27 23 18 18 19 20 21 22 24 26 29 32
32 37 37 38 36 32 26 25 35 59 55 60 66 66 64 66 69 81 66 58 53 37 31 36 40 41 48 48 41 28 26 29 26 21 21 22 22 22 23 24 24 24 26
38 39 39 39 37 27 20 18 43 90 80 64 68 76 76 79 83 83 69 64 57 54 53 51 52 54 52 45 36 28 29 30 28 25 25 25 26 26 27 28 28 28 27
46 45 39 42 44 41 31 20 20 65 67 66 74 78 81 87 87 82 76 73 67 59 54 54 51 50 51 51 39 32 31 31 30 28 28 28 29 29 29 29 29 28 28
56 51 47 47 53 51 48 50 32 28 40 64 82 83 82 88 87 85 82 77 72 69 62 56 52 53 53 48 35 32 34 32 30 30 30 31 31 33 35 36 37 36 36
67 62 62 65 60 71 68 66 70 45 65 73 78 95 93 89 90 91 88 80 70 66 64 63 56 52 53 42 32 35 35 34 34 34 33 35 38 41 42 39 30 18 13
49 64 73 72 72 66 69 75 76 87 91 96 97 97 97 97 94 94 89 78 70 62 56 52 44 42 39 32 37 37 37 37 37 38 40 44 45 42 33 22 17 16 18
22 42 48 66 77 73 72 81 94 84 86 76 79 80 82 85 83 78 72 62 56 55 48 40 36 32 32 38 39 40 40 40 44 48 48 43 31 21 19 23 27 29 30
50 64 47 56 64 75 79 76 76 84 84 77 75 90 81 73 57 51 55 56 51 40 34 33 32 38 43 44 45 45 46 50 52 46 34 26 29 35 37 35 32 32 31
55 59 54 61 62 71 79 86 86 88 91 89 90 81 58 47 53 57 52 31 25 24 29 36 48 50 49 47 48 54 56 50 36 32 42 44 42 38 38 38 36 35 34
54 52 48 48 56 68 79 89 99 97 94 88 84 50 63 53 43 40 36 32 36 50 50 65 62 55 52 52 56 51 36 35 48 50 47 44 41 38 35 33 32 30 29
40 38 40 36 44 53 75 88 86 77 81 69 69 64 77 86 74 55 37 32 38 54 74 71 66 63 63 57 41 38 44 43 42 42 39 37 35 33 30 26 22 15 12
51 44 35 38 36 49 81 86 72 69 80 90 97 99 98 93 76 50 40 40 49 64 67 72 78 71 49 44 53 49 46 44 40 37 34 28 22 18 16 12 10 9 8
52 37 35 42 44 61 77 80 73 77 78 95 100 90 100 92 63 49 51 64 67 59 56 77 60 55 63 58 53 47 42 39 37 33 21 15 13 14 13 10 8 6 5
38 38 38 44 55 77 77 83 79 80 95 98 87 89 99 76 60 68 82 79 70 61 49 40 48 54 53 52 45 42 39 33 25 18 13 11 10 9 7 5 4 3 3
43 42 41 45 56 58 82 95 82 86 99 92 81 100 91 64 83 90 87 78 80 57 42 52 48 48 42 39 38 27 13 8 7 6 6 6 6 4 4 3 2 3 4
45 40 43 50 56 53 88 89 81 99 93 78 93 97 68 85 97 94 89 82 56 66 60 52 45 42 36 21 10 9 8 8 7 6 4 3 4 3 3 4 10 33 38
50 49 49 44 50 68 87 84 87 90 81 90 98 71 92 100 99 94 69 69 71 63 54 46 38 23 14 9 9 9 8 6 6 5 4 4 4 6 15 23 34 40 43
60 68 52 49 60 63 83 87 97 87 97 98 73 97 100 99 86 70 75 68 59 53 48 31 19 15 12 10 8 7 6 4 4 6 10 21 34 41 40 38 46 42 41
83 58 50 70 52 99 96 97 90 99 95 85 100 99 96 71 75 73 63 52 49 38 24 19 15 12 9 8 7 5 4 6 19 27 30 31 27 24 22 24 32 35 35
54 48 47 76 81 87 100 90 99 95 98 100 100 82 72 80 68 57 54 44 30 24 19 12 9 9 9 8 4 5 11 16 14 20 13 13 18 15 20 20 20 17 16
52 44 68 98 96 84 96 90 96 100 100 91 72 81 73 62 56 52 37 28 18 12 10 10 10 9 6 5 10 15 13 11 13 14 12 10 14 15 25 29 25 18 14
58 95 97 86 93 95 85 99 100 93 72 76 76 65 56 55 43 31 23 16 13 11 10 9 7 5 10 17 14 13 11 9 12 18 16 9 14 14 22 45 37 29 21
100 100 99 97 88 100 100 92 69 69 76 70 58 59 48 34 28 20 16 14 11 10 8 6 7 17 14 12 11 11 12 15 25 26 24 18 19 17 22 53 47 38 25
97 90 86 99 99 77 62 66 72 70 57 58 55 41 32 25 19 16 13 12 9 8 6 14 16 13 18 24 28 31 30 23 33 32 33 30 40 33 37 65 72 48 32

GFSMA_500_rhum_054.txt.gz
RH
31 28 28 32 33 34 34 31 30 28 28 31 35 41 63 80 78 71 68 63 59 65 63 52 38 39 45 48 48 40 38 45 40 31 27 27 21 18 18 18 18 19 19
34 34 30 31 35 37 36 36 34 30 28 31 44 45 48 61 68 66 64 62 64 74 66 56 46 30 43 48 44 41 44 48 40 29 27 29 27 22 20 20 20 20 21
37 43 43 35 35 36 35 38 34 24 21 22 61 79 59 66 74 73 74 72 74 82 70 62 56 53 46 41 42 48 54 48 40 30 31 31 30 27 23 22 22 22 22
37 46 45 45 42 38 39 40 38 34 22 19 38 87 68 70 81 82 86 88 88 83 76 70 67 58 55 54 54 52 50 54 48 37 34 33 32 29 26 24 23 24 24
40 48 52 51 48 45 40 43 46 45 45 39 25 33 42 60 88 90 88 92 92 88 84 79 76 72 68 63 60 56 54 54 50 38 33 34 33 30 29 28 27 27 26
21 37 49 56 57 52 54 60 59 64 64 62 72 59 64 74 73 95 97 93 94 93 90 86 80 72 67 64 63 65 53 52 45 33 35 36 33 31 31 31 31 30 31
29 30 34 42 62 63 64 63 66 63 66 72 71 87 94 95 95 98 96 93 96 97 96 90 80 73 65 57 55 47 42 40 35 35 38 36 33 33 34 35 36 38 39
44 50 46 47 41 55 63 68 76 74 69 78 83 78 87 83 77 77 83 87 80 75 68 62 58 55 55 52 43 37 32 32 39 41 38 36 36 38 40 42 42 39 31
45 55 57 49 45 66 62 66 74 74 74 77 78 79 83 89 86 87 85 80 60 52 55 58 53 42 35 32 28 29 35 44 44 42 40 40 42 44 44 37 26 18 17
37 55 58 63 84 71 62 62 68 66 73 78 78 79 87 85 91 93 66 51 49 46 38 32 29 26 26 30 37 48 52 52 50 46 45 47 45 35 24 21 22 23 22
77 88 86 81 78 72 65 64 69 75 84 90 89 94 92 86 83 71 68 58 62 68 58 47 37 33 33 41 50 54 54 52 51 52 50 36 26 24 23 23 22 22 22
53 82 90 83 81 76 61 58 57 62 68 84 94 77 69 68 71 77 85 88 86 79 65 52 43 42 48 57 60 57 54 55 53 36 33 35 32 32 33 32 30 30 29
58 75 90 87 80 72 56 45 44 51 70 86 87 71 62 67 76 83 79 68 70 78 66 65 67 72 73 67 66 62 57 42 34 34 32 34 34 33 31 29 29 28 27
52 66 81 85 76 74 58 42 42 59 80 72 73 70 65 82 93 80 68 63 72 64 51 82 100 92 83 77 68 47 37 39 35 36 35 32 31 29 26 22 20 18 15
54 62 79 77 81 86 65 39 50 49 75 61 73 73 65 93 91 78 67 75 74 53 59 100 98 98 85 60 55 52 46 45 39 34 33 26 21 18 15 13 10 8 6
66 71 80 82 82 72 47 43 48 50 60 56 78 72 75 99 84 75 74 83 63 69 72 81 88 75 57 62 55 51 43 37 33 24 18 15 12 10 9 8 6 5 4
65 69 80 81 74 49 45 44 47 100 50 63 69 66 100 93 86 74 92 71 77 86 81 81 62 49 50 50 46 41 33 23 16 12 11 10 9 8 6 5 4 3 3
77 75 82 76 52 51 49 56 43 47 48 59 71 97 96 86 77 90 84 82 90 94 81 52 50 51 47 42 35 24 17 13 13 11 9 5 4 4 4 4 4 6 8
78 77 73 55 51 48 48 49 46 43 53 70 79 99 91 85 92 84 92 92 92 70 64 55 50 44 39 28 21 17 14 12 8 5 4 5 5 5 7 15 20 24 28
78 66 60 54 58 58 57 52 42 54 94 97 98 81 85 93 94 97 99 82 67 66 62 51 43 32 25 19 15 10 6 5 6 6 5 5 10 13 12 12 10 10 10
69 66 61 53 71 65 51 47 46 96 100 97 87 88 92 98 100 88 64 66 64 55 47 35 28 21 16 13 10 7 6 6 5 10 12 13 14 12 12 13 12 11 9
70 68 54 99 97 52 53 57 100 97 86 94 96 84 93 95 62 65 66 60 51 42 32 25 18 14 11 8 7 7 6 6 15 13 11 9 8 10 16 16 16 14 12
69 68 98 73 56 53 100 96 95 95 98 92 92 94 64 64 67 65 55 49 37 29 22 18 13 11 9 8 6 6 13 14 14 16 15 10 15 18 24 25 22 19 16
85 93 58 51 62 100 96 96 100 96 95 91 64 62 67 70 59 54 43 33 25 20 14 14 10 9 7 5 11 14 16 17 19 28 36 20 28 26 35 37 30 23 21
82 83 68 72 96 100 97 99 88 88 62 63 67 70 58 54 48 38 29 20 16 15 12 10 8 5 8 15 15 22 25 31 40 48 70 43 45 38 50 67 68 65 46
100 100 99 99 98 90 80 74 53 55 61 71 58 56 50 39 32 22 18 16 14 12 10 6 5 15 15 22 32 38 46 53 65 64 83 61 56 52 49 66 82 92 72

GFSMA_500_rhum_057.txt.gz
RH
15 21 24 29 30 30 32 34 34 32 32 32 31 30 29 37 42 51 62 69 73 70 67 64 61 66 58 52 34 39 47 52 46 38 43 46 37 28 29 29 24 20 20
17 30 34 32 37 38 33 36 37 37 37 35 30 22 23 35 66 63 63 65 69 71 68 68 70 75 65 58 54 41 36 38 40 42 51 49 38 29 31 32 31 26 23
15 22 25 34 43 46 40 36 36 38 36 35 34 26 19 22 68 82 62 70 72 77 78 78 81 81 74 68 62 56 51 51 52 50 49 47 48 39 33 33 33 31 27
15 14 23 35 44 48 49 45 41 37 40 42 43 40 41 28 25 32 38 58 74 79 83 87 89 88 83 77 75 71 66 59 54 65 61 55 53 47 38 35 35 33 29
19 24 24 32 43 47 51 51 49 48 49 56 58 61 59 59 66 57 61 72 69 84 87 84 85 86 86 85 82 78 73 69 68 68 70 67 54 49 37 35 36 34 30
41 36 20 21 29 41 48 54 59 58 60 57 58 58 58 65 68 74 79 86 90 93 95 92 93 87 85 86 86 82 76 69 60 57 55 49 46 41 34 37 38 34 31
45 43 28 30 30 35 43 51 56 61 59 59 61 64 62 64 71 71 79 80 76 75 79 82 82 74 71 68 65 60 55 53 54 51 44 38 35 33 37 40 36 33 32
70 74 52 53 41 46 53 50 37 44 49 55 61 62 64 62 64 67 76 84 85 86 86 79 61 48 47 46 45 40 34 32 32 31 29 29 34 43 43 40 37 34 33
78 72 74 68 55 62 66 60 74 74 66 57 57 59 59 64 69 77 74 81 84 89 81 76 67 52 46 47 45 40 33 29 29 30 37 43 44 44 42 40 38 38 39
47 54 60 72 80 89 80 93 94 95 74 61 59 62 55 68 75 79 76 75 74 67 68 67 73 72 68 62 57 49 39 36 40 47 51 50 48 45 44 45 45 36 23
37 42 54 60 67 84 94 96 96 97 94 69 67 59 42 63 72 75 66 61 59 69 76 73 68 64 63 64 59 48 40 43 51 58 59 57 54 52 48 39 28 22 20
24 36 38 58 68 80 90 98 97 98 94 67 58 50 52 72 73 70 66 65 70 80 80 70 62 60 60 60 53 48 51 61 66 65 63 60 49 33 26 26 25 24 24
19 26 31 41 58 71 80 93 97 97 86 69 48 46 48 66 54 63 73 68 80 95 84 74 70 70 67 59 60 71 76 74 71 68 54 36 33 29 28 28 28 26 25
34 28 29 48 54 73 87 90 90 97 87 75 61 41 44 88 44 58 76 75 92 84 78 87 98 90 69 67 78 77 72 70 58 40 35 32 34 33 30 29 26 23 19
46 40 51 65 70 74 90 84 88 90 95 88 54 44 39 49 42 58 63 67 91 85 66 92 100 94 86 88 85 80 68 47 41 39 40 36 33 30 25 20 16 13 12
35 62 60 66 81 84 81 80 82 87 95 86 51 40 43 62 45 60 81 81 100 79 56 70 88 85 88 88 81 60 51 48 46 41 37 32 25 19 14 9 6 4 4
31 60 65 56 71 76 83 82 85 96 95 52 45 46 98 78 52 79 79 88 100 92 79 84 76 80 81 71 57 53 52 45 39 33 25 18 13 8 5 5 5 4 3
70 27 74 65 73 75 76 78 89 90 53 48 89 48 44 76 89 99 96 98 90 92 81 75 78 75 54 55 56 50 42 36 27 21 15 9 6 6 6 5 5 4 3
68 81 84 74 70 75 77 76 81 54 53 59 66 52 75 97 87 96 100 98 98 93 89 77 60 58 62 55 47 40 30 23 18 13 10 8 6 6 5 4 5 8 11
64 81 80 81 89 88 81 77 57 62 66 70 69 58 84 100 100 100 98 99 95 91 67 65 64 60 52 43 32 25 18 14 11 10 8 6 5 5 8 12 11 9 9
60 82 86 91 93 84 75 63 66 87 91 99 96 54 100 100 100 100 99 97 69 65 67 64 54 47 37 28 19 14 12 10 9 8 5 5 7 13 12 13 18 20 17
63 56 66 68 92 75 69 71 99 99 59 55 65 100 98 98 99 98 79 64 63 64 56 50 38 27 18 16 14 12 9 7 5 6 9 14 17 16 26 35 41 36 29
36 35 54 76 77 75 95 96 89 96 99 99 99 98 99 99 77 63 62 64 57 52 38 27 21 19 15 12 8 6 4 4 7 14 17 19 26 34 48 61 64 56 50
45 62 89 84 98 99 92 89 98 99 98 100 100 90 75 54 60 63 56 52 38 30 24 23 19 14 10 9 6 4 6 13 15 22 33 30 38 50 65 76 77 70 62
87 93 92 99 99 89 100 99 100 96 100 90 75 55 60 61 55 53 38 31 27 23 19 14 12 10 7 4 6 14 16 20 25 30 41 45 61 74 77 72 76 79 87
99 99 100 98 98 99 98 98 99 92 82 67 67 58 49 45 36 32 29 25 21 18 15 12 7 4 6 15 16 18 24 31 44 51 91 77 84 79 64 59 66 91 100

GFSMA_500_rhum_063.txt.gz
RH
9 7 7 7 7 9 15 17 16 16 17 20 23 26 28 28 29 30 30 29 25 23 23 38 49 36 47 54 56 58 57 64 71 66 60 54 40 42 48 46 39 44 47
9 7 7 9 7 8 10 9 10 11 16 24 29 32 33 33 32 32 34 34 33 34 36 36 34 32 35 54 64 67 66 69 75 76 71 66 60 52 48 47 47 50 46
8 7 9 11 11 8 7 10 15 16 18 23 24 26 30 34 36 39 38 41 44 46 48 49 52 56 59 55 62 75 80 82 82 83 80 75 70 68 62 56 54 60 64
18 16 15 14 11 8 9 18 20 17 18 21 21 26 29 27 29 36 45 51 51 52 52 50 52 53 66 70 76 76 78 78 76 76 76 74 73 73 73 72 70 67 67
34 34 30 23 11 10 16 26 26 17 14 19 21 24 28 25 27 29 35 41 44 49 56 58 59 62 65 73 73 73 68 69 78 79 76 73 75 77 76 73 71 69 65
70 69 51 34 29 23 31 41 42 37 26 28 26 30 33 30 25 28 36 40 40 41 42 48 54 61 65 66 66 69 75 77 70 56 47 45 45 47 51 49 46 48 49
80 80 80 64 58 56 57 57 60 58 49 55 47 46 50 48 41 38 47 42 42 42 46 51 56 62 63 62 64 69 64 62 66 65 61 57 55 52 49 42 34 28 27
74 77 88 88 82 76 76 80 88 85 76 76 71 76 80 85 94 76 64 48 45 43 34 47 50 54 60 59 55 50 48 49 52 53 52 50 48 46 46 50 48 42 35
54 70 70 85 82 89 86 84 88 94 78 77 73 68 77 90 94 98 87 59 55 55 37 43 50 50 49 51 50 53 56 56 57 52 50 46 43 45 49 49 48 44 42
18 33 51 51 64 74 83 89 80 74 75 80 80 74 85 90 84 98 98 93 87 74 61 42 49 48 37 41 48 53 54 58 61 57 52 43 40 44 47 48 48 48 49
16 17 19 37 45 56 79 72 65 60 67 69 68 75 72 77 81 81 100 99 96 92 82 57 40 49 43 42 53 49 49 59 67 66 57 52 47 46 46 51 51 45 43
19 19 30 39 40 42 53 36 50 63 72 79 76 69 73 81 98 96 94 94 96 94 89 69 54 63 79 41 51 64 61 47 56 74 67 60 49 45 46 48 48 47 44
13 14 17 25 31 42 60 60 64 65 67 76 78 78 81 95 87 89 88 96 92 89 90 92 75 74 53 48 50 52 59 51 60 68 67 63 61 56 58 53 50 47 44
8 9 9 9 12 35 49 59 72 75 86 86 85 91 91 99 94 97 94 91 91 92 97 91 91 97 84 57 56 45 66 68 77 72 73 60 50 56 56 54 52 49 46
9 9 11 12 17 25 44 56 88 87 95 92 92 92 92 98 96 99 92 93 78 99 99 78 68 97 98 93 81 83 72 74 73 75 68 69 65 60 59 59 56 53 48
17 15 15 16 18 26 40 55 63 97 92 86 91 93 96 100 94 87 95 86 79 88 96 81 91 90 88 71 98 92 82 85 79 76 72 64 63 60 58 53 47 43 40
32 31 32 34 30 22 21 23 37 55 71 84 89 91 92 99 95 84 79 89 90 98 98 99 100 96 73 69 86 90 94 93 83 72 68 63 56 52 44 37 29 24 21
53 48 42 39 38 48 49 36 23 19 20 50 70 87 99 98 80 82 81 85 92 98 75 70 87 96 99 93 96 99 95 83 69 67 60 49 39 31 27 23 20 18 16
21 20 39 50 43 48 64 66 41 23 19 28 51 61 73 70 98 82 98 99 94 81 95 100 95 99 100 100 100 96 78 69 57 47 38 31 27 22 20 18 14 9 8
51 29 27 43 53 51 54 72 58 34 29 51 66 91 96 90 98 99 98 89 100 97 99 98 96 100 100 96 86 71 54 42 35 31 26 22 20 14 10 8 6 5 5
68 73 82 100 97 77 93 100 65 59 55 92 89 100 99 94 87 72 80 87 98 98 99 96 99 94 90 79 53 34 29 26 25 23 16 9 8 5 4 6 9 13 14
100 100 99 90 87 100 100 98 77 50 89 84 69 87 99 91 97 98 98 99 99 97 96 93 77 54 37 30 29 26 21 14 8 8 6 4 6 12 18 20 21 22 27
100 100 99 100 95 92 96 91 74 72 96 94 100 86 83 80 97 98 100 99 93 85 66 39 30 29 25 18 13 8 8 8 6 5 6 10 15 14 10 12 12 9 10
100 100 99 100 100 100 100 94 89 100 100 76 92 99 98 98 98 97 90 46 36 33 29 25 19 13 9 7 6 6 5 4 10 14 12 11 16 20 25 23 16 11 12
94 71 74 92 94 81 100 100 100 99 92 100 95 99 99 91 67 44 30 28 20 12 8 6 4 4 4 4 4 4 10 13 13 22 15 29 41 33 47 44 40 34 28
58 98 97 74 97 99 100 99 99 99 98 96 97 78 47 33 30 26 17 10 8 5 4 4 5 4 4 7 14 14 11 20 28 23 25 29 46 42 48 68 64 47 50

GFSMA_500_rhum_066.txt.gz
RH
6 9 8 7 6 6 6 7 9 12 10 10 11 13 16 16 18 21 25 27 30 32 32 32 34 36 36 37 36 33 38 48 53 56 61 65 70 64 59 50 41 45 48
6 8 9 8 7 7 9 8 8 7 9 12 12 12 14 15 15 16 21 28 31 32 36 34 34 37 42 44 47 49 52 49 52 61 68 73 76 78 72 67 62 53 47
7 8 10 8 7 8 10 11 8 7 14 14 12 14 16 16 16 17 18 20 25 30 36 41 45 46 45 44 42 47 57 68 71 70 70 70 73 75 78 78 75 71 66
21 8 8 15 12 12 13 12 7 8 20 18 13 14 18 20 21 23 21 17 18 25 31 35 37 43 48 49 48 50 59 72 72 69 66 75 82 77 76 73 76 78 75
34 26 19 21 24 24 23 14 9 12 26 30 20 19 24 24 27 32 34 34 25 28 34 35 34 36 40 41 45 54 59 59 61 67 70 70 68 64 63 56 56 61 70
48 34 34 38 48 41 36 32 23 22 36 44 48 42 47 45 42 52 61 73 67 46 37 34 36 36 41 44 47 52 55 54 56 65 66 64 64 56 47 44 43 43 43
52 57 64 69 77 83 83 64 52 50 58 63 65 69 68 61 62 68 76 79 84 76 64 43 41 34 32 38 37 38 46 47 47 47 45 44 46 49 50 48 47 47 47
48 56 65 71 72 84 85 84 82 76 74 82 88 86 71 65 68 66 72 77 75 89 90 66 50 50 36 32 35 36 35 29 32 42 49 50 53 53 47 44 41 41 46
30 48 56 67 66 77 79 87 92 85 82 86 88 85 77 67 78 80 75 80 74 77 96 95 71 81 80 50 40 34 37 32 27 29 36 40 50 50 44 40 30 29 31
14 22 25 32 35 50 67 80 90 92 84 89 91 83 64 64 70 72 74 71 70 72 68 90 99 95 86 71 59 49 38 41 36 34 34 34 43 53 52 49 44 39 32
10 14 21 36 27 33 31 39 58 64 70 78 82 73 68 63 69 74 66 71 73 73 73 70 100 97 92 89 81 65 45 54 62 40 45 42 36 31 37 57 56 52 49
11 11 14 22 29 35 41 51 55 54 64 69 75 52 63 70 63 68 73 66 71 79 78 81 86 98 98 93 94 88 81 63 68 46 45 38 42 44 44 57 64 60 53
18 18 18 20 27 30 48 49 54 67 71 75 76 80 84 88 81 74 77 80 84 83 90 92 91 90 96 92 97 94 85 79 75 74 56 47 60 66 62 68 65 58 54
11 14 18 22 24 24 28 41 54 56 66 73 78 79 82 86 84 79 83 92 90 89 97 96 83 87 91 99 98 92 78 79 92 88 74 74 73 68 65 57 55 52 48
12 13 14 14 16 17 16 18 19 42 58 63 75 76 98 97 79 76 94 98 98 99 94 80 86 98 97 98 97 95 90 94 95 85 57 62 59 59 58 68 58 52 49
22 23 24 26 27 26 23 23 26 33 46 63 69 66 97 86 99 92 91 90 87 93 90 95 88 91 96 98 99 97 93 90 94 94 86 64 65 73 78 72 63 58 51
43 45 44 38 38 42 47 52 50 38 29 30 31 50 61 82 96 63 74 86 96 95 94 97 99 100 98 97 99 97 99 90 93 94 84 86 81 85 80 69 58 46 36
23 22 23 24 29 34 40 55 55 55 62 53 42 36 23 25 25 36 51 62 64 67 96 100 99 95 100 95 95 99 98 100 96 100 95 86 72 62 44 33 28 23 21
38 34 29 25 26 28 28 38 65 71 64 67 70 54 30 22 25 26 60 88 96 99 99 99 98 95 93 96 99 96 100 99 91 79 65 48 33 28 26 23 21 19 15
28 25 28 39 45 44 44 37 53 98 92 89 91 56 31 26 46 95 100 100 96 100 99 97 88 95 100 100 100 100 96 82 61 35 28 25 22 18 13 10 9 8 7
33 37 53 56 69 83 67 55 46 80 93 100 95 45 49 63 99 100 100 100 97 97 94 96 99 100 100 89 54 37 31 26 19 12 9 8 6 6 6 5 4 5 6
52 52 82 75 86 80 100 100 100 100 100 99 92 62 75 100 96 97 100 99 100 92 100 99 88 55 34 24 20 12 8 6 5 5 4 5 4 5 7 10 12 12 17
89 98 98 96 97 100 100 100 100 100 96 91 82 92 100 100 100 99 99 99 97 85 60 50 28 16 9 6 5 4 4 4 5 5 4 6 12 18 18 21 26 25 24
63 88 95 97 99 100 100 100 99 100 100 100 100 100 100 98 92 99 96 61 34 26 17 11 7 5 4 4 4 5 6 5 5 11 12 11 29 23 33 36 33 35 36
66 95 96 97 100 100 99 100 100 100 99 98 100 99 100 96 68 35 30 23 16 10 7 5 4 4 4 5 6 6 9 12 12 15 14 33 32 32 43 53 51 43 49
68 83 99 98 66 80 86 99 100 100 98 89 71 50 37 31 29 23 16 11 8 4 3 4 5 6 8 8 8 9 10 16 29 38 33 34 43 44 55 79 70 60 68

GFSMA_500_rhum_069.txt.gz
RH
11 14 7 6 7 7 7 6 6 6 6 8 7 8 10 11 12 12 16 17 17 15 17 22 25 29 29 28 26 33 35 37 39 47 50 48 53 55 58 62 67 64 62
11 15 12 6 8 9 9 7 7 9 7 8 7 12 11 12 12 13 13 14 15 15 16 17 22 26 30 33 35 36 36 34 35 41 49 60 66 68 66 63 65 68 67
33 30 18 14 8 9 10 8 8 10 11 7 8 16 13 12 15 17 17 21 22 20 18 19 23 26 27 25 28 31 32 34 36 44 53 61 63 64 68 72 72 69 67
25 43 47 26 23 9 11 16 14 14 13 8 7 20 20 13 15 20 22 26 32 39 47 35 30 31 27 25 31 35 34 32 33 36 46 51 52 58 65 64 63 66 68
20 35 35 40 39 30 19 20 24 26 25 13 9 20 32 30 27 31 34 38 51 64 76 78 52 41 32 32 31 30 33 33 37 41 44 45 49 55 60 60 62 60 55
13 24 46 56 51 44 38 34 38 44 37 34 26 25 38 44 49 51 58 53 62 64 65 78 72 72 53 40 36 30 28 29 30 30 32 34 38 41 43 46 49 55 56
12 14 26 42 41 52 61 64 74 82 84 71 58 52 58 65 74 75 68 66 63 64 66 65 61 73 80 63 47 45 37 32 30 33 32 28 27 36 46 47 47 48 51
12 11 12 21 27 38 53 71 86 82 90 85 83 78 74 78 92 95 83 69 75 77 67 63 59 58 65 83 79 62 73 88 48 40 36 35 29 25 28 39 50 56 48
10 11 10 10 12 22 40 56 77 88 89 85 94 93 91 92 99 97 88 80 74 79 74 63 59 58 64 60 80 100 98 90 78 65 55 43 36 34 32 36 41 52 54
13 29 38 19 20 22 24 34 39 58 65 71 84 90 92 91 88 89 91 67 70 72 78 70 64 59 65 59 73 77 93 93 92 85 79 69 53 44 40 36 39 37 38
15 17 37 46 40 36 42 50 60 58 63 59 57 63 93 91 82 79 67 72 72 86 79 79 78 81 76 79 76 72 80 99 100 95 84 82 77 71 63 46 39 34 34
18 18 19 29 22 27 22 33 50 65 76 73 73 79 84 86 86 84 88 84 88 95 95 95 95 88 88 86 83 79 84 97 95 93 76 91 86 81 70 64 68 42 44
21 22 23 22 22 26 23 23 45 64 79 83 84 87 90 96 95 97 93 88 75 82 90 90 91 95 89 85 96 97 90 87 96 95 87 97 82 87 89 80 80 66 70
16 15 14 14 17 22 28 29 31 31 33 44 49 55 70 91 100 98 93 74 83 96 94 86 92 98 98 98 99 87 93 88 97 94 92 92 92 86 90 98 90 71 67
10 10 12 14 16 17 18 19 20 32 43 50 55 51 48 56 74 81 80 84 98 93 99 99 98 84 94 95 82 98 82 84 80 80 100 97 93 97 86 84 78 78 69
19 23 26 30 32 33 35 36 36 33 30 34 43 54 49 53 62 73 96 77 91 98 99 95 51 61 61 76 58 99 91 95 93 100 96 95 92 85 81 83 80 75 68
10 14 18 22 24 30 46 64 63 55 50 53 62 62 56 46 41 59 85 73 74 74 77 97 43 54 65 64 72 78 95 98 96 94 92 85 89 85 87 86 90 90 89
9 13 28 37 38 41 38 34 31 41 59 69 71 68 63 66 62 48 41 88 60 35 38 45 40 82 100 94 100 99 99 98 91 94 81 85 94 97 100 92 72 49 38
17 24 24 22 26 24 29 38 36 35 36 38 56 72 75 72 73 72 58 49 43 31 26 40 94 97 96 100 99 99 97 95 100 98 86 69 54 40 26 19 15 11 9
19 27 29 32 39 49 50 50 58 67 68 44 40 51 62 78 79 82 74 68 37 28 53 85 99 100 100 98 100 100 98 91 76 48 23 13 8 6 5 4 4 4 4
14 32 42 46 46 38 48 69 87 77 91 79 51 54 60 73 91 98 75 39 49 76 100 100 100 100 98 97 81 48 32 18 7 6 5 4 4 4 4 4 4 4 4
14 25 30 42 46 50 41 42 52 66 68 71 77 100 100 100 100 99 77 69 96 100 100 99 98 92 44 12 6 5 4 4 4 4 4 4 4 5 5 5 6 7 11
34 38 43 47 51 56 68 80 90 94 99 99 100 100 100 100 100 91 100 100 100 98 78 37 16 9 6 5 5 4 4 4 4 5 5 6 8 9 10 12 18 28 25
40 45 49 62 65 54 58 71 97 100 99 100 100 100 99 100 100 100 98 88 39 22 12 11 7 5 5 4 4 5 6 6 6 7 6 8 18 27 36 39 33 30 27
39 47 57 53 54 65 76 87 95 98 100 100 100 100 99 96 73 39 32 25 15 12 9 7 6 6 5 5 8 7 6 9 19 32 29 32 32 26 38 38 39 41 39
56 58 62 62 68 74 84 91 97 100 98 91 82 63 42 35 33 28 21 14 11 11 9 7 7 5 6 8 8 8 12 30 33 33 27 28 35 28 34 52 59 55 47

GFSMA_500_rhum_072.txt.gz
RH
10 11 10 10 14 10 6 6 7 8 6 5 6 6 7 7 9 10 13 12 11 11 10 12 14 15 18 21 22 25 26 26 25 25 26 26 29 40 52 58 58 61 59
15 26 19 30 24 18 13 8 8 8 7 7 8 9 7 9 13 10 15 15 14 16 19 20 20 19 20 23 24 21 19 22 23 24 26 28 34 42 51 55 60 64 65
9 11 10 18 39 45 24 21 12 8 13 10 10 11 8 10 18 14 13 18 19 23 27 33 52 53 38 30 26 20 22 26 26 25 24 24 28 32 36 38 45 58 59
14 20 16 14 19 31 36 40 32 25 15 18 20 18 11 8 17 25 17 18 23 27 34 43 64 61 61 44 35 27 27 25 21 20 20 19 19 20 28 31 38 45 50
10 13 9 8 10 16 41 46 47 44 35 29 31 32 32 21 17 25 38 38 42 47 48 61 63 59 60 64 62 51 39 35 33 29 26 25 24 23 21 19 25 32 41
18 17 15 16 11 10 18 36 46 50 53 46 49 62 64 48 38 36 45 52 54 61 68 65 58 58 61 54 52 58 64 56 46 44 41 57 41 32 29 26 24 24 30
16 18 15 10 9 9 11 24 26 32 48 62 70 80 86 86 80 74 74 74 83 78 68 75 72 66 62 59 54 55 61 78 80 69 59 85 80 61 52 36 29 25 24
22 22 23 26 14 13 10 15 15 32 45 56 60 84 83 87 92 96 92 92 88 91 90 88 78 75 71 59 59 59 59 63 70 80 91 88 86 78 70 62 53 34 30
18 24 27 37 38 38 27 30 46 59 61 64 66 70 78 87 95 99 96 97 97 97 100 93 81 68 73 77 72 68 61 61 67 70 70 70 85 93 88 80 74 68 47
9 14 32 31 33 37 27 46 50 58 62 69 84 86 77 71 68 75 82 88 97 92 94 100 90 85 82 74 68 77 82 86 76 80 78 64 79 85 92 89 84 83 82
11 12 13 15 15 33 32 32 39 39 55 71 76 85 88 94 95 90 86 90 95 98 93 100 100 96 96 91 84 87 95 92 85 90 90 86 70 68 75 79 78 77 68
10 13 16 18 18 21 27 28 32 39 31 52 55 63 80 97 96 95 96 97 98 98 97 94 94 96 87 96 92 73 94 95 96 98 99 99 82 72 67 81 82 79 74
11 14 18 24 20 19 18 17 18 23 25 35 41 29 52 89 99 100 100 98 95 98 95 85 96 78 84 95 94 99 99 96 95 99 98 92 80 63 79 71 60 71 77
14 14 12 11 11 13 14 15 14 16 28 29 36 58 62 64 63 69 81 83 72 86 92 91 96 72 92 96 98 98 99 98 100 98 98 94 93 77 74 64 73 79 84
8 10 13 17 21 24 28 34 38 39 42 48 55 62 60 56 68 74 80 84 75 75 83 72 63 99 96 96 98 98 83 51 40 51 54 45 94 93 82 80 85 81 79
11 10 8 6 7 9 11 12 14 32 33 45 70 72 76 82 81 81 75 66 56 63 65 82 86 88 97 100 98 99 90 75 43 66 80 91 93 95 99 94 83 75 76
6 5 5 8 10 14 17 19 21 19 21 27 43 41 81 86 79 85 86 86 81 64 60 53 98 98 99 98 98 87 41 41 62 90 84 94 97 92 92 95 92 86 80
5 7 9 8 8 14 16 23 25 41 42 36 33 44 64 100 100 100 91 81 80 77 71 62 59 100 99 96 52 31 33 94 99 98 98 94 90 96 93 91 90 66 42
5 6 7 7 8 14 24 23 22 25 45 64 65 64 65 66 82 90 99 99 93 91 82 100 90 68 67 54 29 49 87 100 100 96 91 78 50 37 23 14 14 15 12
8 7 6 8 15 18 19 21 34 35 29 46 83 78 96 79 59 40 36 51 59 76 85 95 94 76 47 38 70 96 100 97 90 69 43 22 15 6 5 5 5 4 4
10 12 15 18 21 24 25 25 31 47 50 47 41 54 84 83 63 47 99 92 92 100 100 100 92 80 91 100 97 70 28 6 5 6 6 5 4 4 4 4 4 4 4
14 20 18 17 27 27 32 32 32 45 47 58 76 56 57 71 96 100 80 85 100 100 100 100 100 99 92 47 15 6 6 7 6 6 5 4 4 5 5 6 5 6 6
19 24 27 24 24 28 34 38 46 47 52 58 66 86 94 95 100 100 98 100 100 100 98 68 21 14 9 7 8 9 8 7 5 5 5 7 7 11 15 20 18 21 22
26 29 29 33 40 46 47 48 49 53 57 60 68 80 95 100 100 100 97 91 74 42 21 14 11 10 11 11 10 8 7 6 7 7 7 16 26 30 31 24 21 22 22
35 41 44 48 50 50 47 52 55 62 72 80 83 84 79 74 64 48 40 30 23 18 12 10 10 10 12 10 8 7 7 8 9 10 10 29 31 30 35 29 30 32 34
40 44 44 42 41 44 47 46 45 44 42 38 37 38 41 41 39 35 31 27 23 23 18 16 10 10 11 8 6 8 11 12 11 12 14 26 40 33 46 50 49 45 50

GFSMA_500_rhum_075.txt.gz
RH
7 7 10 20 22 22 28 17 13 11 8 7 8 6 6 8 8 7 10 10 10 12 13 13 14 17 19 21 20 20 20 17 15 18 21 21 21 22 25 30 36 40 49
9 8 9 9 11 10 16 39 37 23 19 13 7 10 9 9 11 7 15 14 12 15 17 17 22 26 40 47 42 31 25 18 18 22 22 20 17 17 20 21 25 30 33
20 14 9 9 16 16 13 16 27 35 38 28 22 14 16 17 15 10 11 21 16 13 18 20 23 30 43 50 46 47 36 27 22 23 21 19 20 19 19 17 16 18 24
14 9 8 8 12 12 9 8 11 25 39 38 39 34 27 26 26 24 12 13 28 27 22 25 31 40 56 56 50 50 51 50 40 33 31 30 29 29 31 27 25 22 21
17 12 15 13 14 14 14 14 12 10 16 34 46 50 47 39 39 39 35 32 28 40 43 47 49 54 60 59 57 58 48 50 50 52 52 44 42 42 52 72 48 39 33
24 20 22 19 15 16 16 11 9 9 10 18 27 33 35 55 61 69 79 78 62 54 56 60 66 73 68 65 62 62 62 56 51 46 50 53 59 53 53 68 69 66 60
21 24 24 26 24 23 27 28 23 16 14 15 14 20 31 39 59 75 88 88 98 97 94 89 91 90 85 81 74 73 67 63 57 50 52 54 55 61 63 61 65 78 71
21 19 22 19 22 25 34 32 40 41 46 63 70 71 61 63 73 74 79 92 95 90 100 98 97 96 95 97 95 90 83 78 76 77 63 58 61 69 70 64 60 59 82
30 35 20 20 22 26 30 36 41 48 67 76 75 84 78 79 85 96 93 85 86 82 86 92 97 98 97 98 97 89 87 88 95 76 82 78 83 88 80 73 64 52 76
11 14 20 21 20 15 15 27 35 51 50 59 63 74 74 75 73 78 100 98 97 96 92 78 66 79 99 97 97 98 95 94 94 91 92 98 96 97 92 79 73 73 59
11 10 9 8 8 9 12 14 19 21 26 34 37 43 57 77 84 89 98 100 98 97 98 98 96 96 96 99 98 94 97 98 88 95 92 95 82 88 87 82 64 73 66
10 9 8 9 9 10 13 15 16 17 17 20 23 23 33 54 67 77 84 96 100 97 97 98 98 97 95 98 96 96 98 89 99 92 97 96 96 85 92 66 76 83 74
8 8 10 12 15 15 12 10 10 12 17 17 20 24 36 39 41 60 75 74 66 87 96 97 97 97 92 97 91 98 93 100 97 98 98 98 98 90 91 80 61 60 64
8 9 11 13 10 10 15 15 13 9 8 9 10 14 21 40 63 91 98 100 90 84 85 94 96 95 84 99 92 97 97 99 96 99 98 99 98 92 84 59 29 26 29
10 11 9 9 11 8 8 6 6 10 11 13 15 18 19 23 30 46 79 95 100 90 84 84 90 98 94 87 96 94 100 95 97 98 98 98 97 78 37 34 66 84 78
10 8 10 10 6 5 6 7 8 9 10 11 14 24 23 26 39 36 48 84 100 100 99 97 95 97 97 89 98 98 99 99 99 96 92 91 89 37 42 85 84 78 77
9 10 10 5 4 4 5 7 9 9 12 13 18 28 26 32 39 69 44 65 100 98 98 97 99 100 94 94 79 96 100 100 78 77 91 60 37 41 69 84 88 86 80
12 11 6 5 4 5 6 6 10 14 13 15 16 25 33 38 48 98 96 65 100 100 100 99 100 98 97 96 88 82 74 74 76 80 63 45 96 100 92 88 84 65 50
13 7 7 6 6 7 11 14 18 19 17 18 21 20 27 33 40 55 90 84 75 94 84 72 59 66 76 80 78 100 99 83 64 72 98 92 72 41 12 7 6 7 7
10 8 8 9 10 12 13 16 17 19 23 25 26 26 28 36 44 45 55 68 52 59 62 76 100 63 82 97 98 100 100 100 96 76 58 19 7 8 8 7 6 5 5
9 9 10 12 14 14 14 17 20 26 31 31 33 37 31 30 42 50 70 73 48 63 94 100 87 99 99 99 100 96 74 45 24 9 8 9 10 9 7 5 4 4 4
11 11 14 13 15 15 18 23 32 33 36 39 40 43 41 41 45 59 72 79 99 100 100 100 100 100 98 36 10 8 8 11 11 10 12 13 8 7 6 6 7 7 9
15 15 16 16 19 24 30 36 35 32 36 47 55 53 54 54 58 66 72 80 92 91 92 88 47 25 10 8 8 10 12 13 15 15 8 8 8 9 9 9 13 21 22
20 24 22 25 32 34 35 32 31 32 36 36 33 34 33 32 31 32 36 34 32 29 26 23 20 17 11 10 12 11 11 16 15 10 7 12 12 12 14 15 26 29 26
33 30 31 35 37 32 28 30 31 27 25 24 26 25 25 27 29 31 32 33 33 32 28 25 25 27 25 18 10 9 12 11 7 7 8 14 13 14 15 17 27 32 26
38 38 41 40 33 31 30 28 26 25 26 26 27 28 28 29 32 33 35 37 38 39 38 36 35 28 17 13 13 12 13 10 8 10 14 20 18 17 17 24 26 35 29

GFSMA_500_rhum_081.txt.gz
RH
6 7 8 9 9 11 13 12 9 9 11 12 12 11 12 15 21 26 25 21 16 14 13 9 13 14 13 16 16 19 22 29 42 41 37 29 18 18 21 19 17 18 18
9 16 13 12 14 16 13 8 6 6 8 9 7 7 9 9 11 20 32 35 33 26 22 19 10 17 19 15 18 21 26 30 45 48 48 43 32 20 22 19 19 22 24
14 22 17 13 14 13 11 11 11 14 15 16 15 14 11 10 11 13 18 31 45 48 40 32 31 16 15 26 21 21 25 31 38 55 52 54 47 38 27 27 25 27 29
18 18 14 18 13 11 20 19 19 19 18 16 17 18 17 17 14 12 13 18 29 45 49 51 43 42 39 27 28 37 32 33 41 54 62 58 56 57 56 48 37 34 34
12 14 20 21 18 21 23 20 21 23 23 21 21 25 29 29 33 37 40 36 32 28 27 31 51 64 73 81 72 51 50 53 52 55 59 60 58 63 57 52 51 52 44
20 19 18 20 14 33 23 22 26 23 18 17 17 30 33 30 36 37 48 74 78 75 80 82 66 56 64 86 96 100 95 85 74 75 77 78 71 62 69 66 54 48 48
21 32 34 20 21 24 17 23 36 37 22 22 18 17 15 17 28 46 64 62 61 74 85 99 100 98 91 78 83 97 96 98 97 97 98 96 96 91 88 83 75 60 51
42 31 42 55 33 24 39 46 33 24 19 22 14 11 11 25 49 48 48 32 33 46 68 89 93 95 99 97 96 91 84 84 96 97 96 97 97 96 96 94 90 92 91
67 58 50 33 40 34 21 21 19 17 13 9 8 14 26 20 21 26 23 28 32 32 34 42 60 82 82 80 96 98 99 97 94 94 98 97 99 98 98 98 95 91 91
50 50 51 47 18 15 18 11 12 11 9 8 11 24 26 20 22 18 23 31 32 31 36 36 39 41 61 69 76 85 98 96 97 98 97 98 97 98 98 98 98 98 98
20 18 16 15 13 12 12 11 11 8 8 9 10 34 9 11 16 12 6 8 7 8 10 21 15 19 32 24 33 85 81 98 98 100 98 98 97 99 97 98 97 98 97
25 21 18 16 14 12 10 10 9 8 9 9 9 8 8 6 5 5 5 5 6 8 7 9 12 12 13 18 47 83 44 77 90 98 97 97 97 97 98 97 97 87 95
26 22 18 16 13 10 10 9 8 9 9 9 8 5 5 4 5 5 6 6 6 7 9 10 10 10 14 22 79 100 66 100 95 97 98 99 94 98 94 96 98 99 96
23 20 16 13 12 11 9 9 9 10 9 9 6 4 4 5 6 7 8 9 8 10 12 10 10 12 14 23 46 91 92 100 100 100 100 100 97 99 99 96 98 98 99
17 14 14 13 11 11 10 10 11 10 9 9 5 4 4 5 6 8 12 14 14 15 16 12 11 14 14 29 57 92 88 93 100 100 100 100 100 99 98 97 96 99 97
15 14 14 13 12 11 11 12 10 9 11 6 6 5 6 6 8 12 17 20 22 22 18 18 17 13 11 23 39 60 74 93 97 86 95 97 97 89 91 82 76 90 89
18 20 17 13 12 12 13 11 9 12 8 7 7 6 6 8 9 13 23 24 27 29 21 26 25 17 16 18 31 48 48 82 70 69 65 57 56 67 72 72 77 83 84
22 17 12 12 13 13 11 10 14 12 7 8 8 7 9 11 12 24 23 20 31 31 28 34 34 27 24 27 26 31 36 49 47 60 72 61 59 78 99 87 81 62 33
13 12 13 14 12 11 10 11 15 9 8 9 10 10 10 13 24 22 16 21 36 36 36 35 34 33 38 40 41 48 54 60 64 65 74 77 82 66 31 10 12 10 9
13 15 14 12 11 10 11 17 14 9 9 10 12 14 21 26 22 15 15 19 19 18 18 24 19 24 26 24 33 44 58 60 59 81 86 37 13 9 11 12 14 16 20
15 14 12 11 11 12 18 17 12 10 12 15 16 22 26 23 15 16 15 15 15 14 14 17 18 18 18 19 21 21 21 21 20 17 14 10 10 10 15 13 11 15 23
13 12 12 12 14 21 20 15 13 14 19 20 25 29 25 17 16 18 18 17 16 19 21 19 19 21 23 24 27 29 30 29 25 22 21 17 18 15 9 9 13 17 25
16 13 16 22 27 22 19 18 18 22 26 28 32 27 19 18 20 21 21 21 22 23 22 23 25 26 26 29 30 36 41 42 40 36 32 23 12 13 13 15 15 20 22
19 22 27 30 27 23 23 25 26 32 34 36 28 22 21 22 23 24 24 23 24 24 25 25 26 26 26 27 29 32 39 46 47 43 37 25 22 19 22 21 17 21 29
29 32 32 32 28 29 30 31 37 38 39 31 26 23 23 26 27 26 28 29 29 28 28 26 25 26 26 26 27 29 35 43 50 49 43 36 34 26 30 29 30 29 22
33 36 34 34 34 36 40 41 43 42 35 32 26 27 29 29 31 33 36 34 33 32 30 26 25 26 26 27 31 32 33 36 36 37 45 43 43 45 34 32 31 30 25

GFSMA_500_rhum_087.txt.gz
RH
11 9 9 8 8 10 13 13 12 10 10 11 14 16 16 16 16 17 16 16 18 23 26 28 28 27 26 28 22 17 24 37 37 25 19 20 21 25 31 51 59 43 23
15 13 11 9 9 12 14 15 12 13 11 17 18 18 18 20 18 15 15 14 17 23 20 18 20 22 28 41 46 47 51 44 38 48 53 40 32 31 28 33 49 65 48
16 13 11 10 10 12 13 12 12 15 16 16 23 19 22 20 17 16 15 15 15 14 12 12 19 31 40 42 40 39 51 69 77 75 65 71 91 97 87 72 68 54 81
17 14 12 11 11 11 12 12 13 16 14 21 19 18 17 25 29 20 18 19 15 12 12 17 19 24 31 19 18 20 29 36 56 77 86 90 85 90 100 97 92 72 93
20 17 14 13 13 12 12 14 13 19 17 19 17 17 34 42 31 21 15 10 9 10 19 19 19 21 18 20 26 26 26 36 44 50 74 83 83 96 96 98 99 97 95
22 17 16 17 17 14 13 14 23 26 25 29 24 36 37 28 20 15 12 9 9 15 24 24 28 22 16 15 8 8 10 13 17 47 44 50 66 84 98 97 99 97 98
25 25 28 31 25 20 26 34 32 28 50 37 33 41 21 15 11 10 9 8 11 17 18 20 11 8 6 4 5 5 6 6 6 6 9 10 10 30 28 80 91 95 98
43 74 77 79 80 69 66 73 74 63 53 40 53 33 20 13 10 10 9 10 14 19 7 6 5 5 4 4 5 6 6 8 7 8 10 9 9 9 8 22 48 100 97
81 83 84 81 80 80 78 96 79 42 45 46 41 29 14 12 10 9 10 13 12 9 6 4 5 5 6 7 7 8 9 12 10 10 11 12 10 9 8 12 82 85 100
65 61 53 57 64 69 66 65 64 49 44 40 20 15 14 11 10 9 9 11 10 6 5 4 5 7 11 12 14 14 15 18 13 16 17 12 12 12 15 20 93 100 97
42 38 52 58 59 61 69 61 46 37 30 24 20 16 13 11 10 12 9 9 8 5 4 6 6 10 10 12 17 19 22 20 18 22 16 13 14 26 34 34 56 96 96
46 47 46 42 35 41 39 31 34 40 38 31 20 15 12 10 10 12 10 9 6 5 4 5 7 9 8 15 19 21 24 20 24 23 15 16 25 60 73 91 80 96 98
39 34 32 29 28 31 34 38 43 48 44 23 18 13 11 11 12 12 10 9 6 5 5 6 6 7 13 19 18 20 26 25 28 21 18 18 36 65 75 85 74 65 99
39 36 34 32 30 32 34 40 49 57 40 25 13 12 13 12 12 10 12 7 6 5 6 7 7 11 18 17 14 24 29 29 24 19 19 20 27 33 46 58 49 47 37
45 43 43 44 46 44 50 52 60 66 42 16 15 18 13 13 12 10 10 7 7 5 8 9 13 18 15 12 17 23 24 23 16 12 12 20 23 28 31 31 33 39 41
52 51 53 55 58 62 59 36 34 24 16 17 34 24 12 13 10 14 8 8 8 9 11 15 17 15 11 12 13 12 17 12 10 10 10 10 17 25 28 35 40 45 48
83 76 67 68 69 45 33 32 23 19 20 39 24 13 14 11 12 14 9 10 11 14 15 18 17 13 12 13 12 12 13 14 12 12 13 13 14 16 19 25 33 52 57
74 67 69 80 57 51 43 25 20 23 22 15 13 15 12 11 18 10 11 13 16 17 19 20 16 13 14 14 12 15 16 14 14 14 14 14 14 16 20 24 26 23 30
89 92 86 86 61 35 20 20 20 19 15 15 15 12 11 18 16 11 15 18 20 20 23 18 15 15 15 16 18 18 16 15 15 16 16 16 15 16 18 26 35 30 20
91 83 77 80 81 70 49 29 20 16 16 15 13 13 18 18 13 17 19 22 22 23 20 16 17 16 17 19 18 18 18 18 16 16 14 14 14 15 17 21 32 44 42
72 50 35 34 26 22 21 17 17 16 15 13 15 18 20 17 19 23 26 26 27 22 19 19 19 21 23 22 22 22 23 20 17 16 16 16 16 17 21 28 32 40 47
34 45 51 54 41 21 20 26 19 15 16 16 23 23 20 22 27 30 29 28 25 21 21 22 24 27 27 26 27 28 25 22 18 19 18 20 18 17 22 32 33 32 37
29 29 32 47 25 24 28 17 17 21 22 31 25 24 27 31 35 32 32 29 25 24 25 27 30 30 31 33 33 30 26 23 21 22 21 23 21 17 20 30 40 41 40
56 49 44 25 21 18 18 22 26 30 34 28 28 32 36 39 36 36 33 29 28 28 30 32 31 33 36 39 39 32 27 25 25 26 27 29 23 17 24 33 36 35 33
52 37 24 21 19 21 32 47 34 37 29 29 36 40 43 41 39 36 33 32 32 33 33 32 33 37 41 43 40 34 31 30 30 31 30 31 19 17 20 31 38 40 39
26 24 22 21 24 33 36 42 42 36 32 38 47 48 46 44 40 38 35 35 37 35 36 37 40 41 43 43 41 38 35 36 35 33 35 36 20 17 31 40 36 21 11

GFSMA_500_rhum_090.txt.gz
RH
19 15 12 10 10 8 9 12 14 14 12 12 12 15 17 19 18 18 14 15 17 16 15 15 12 11 13 18 25 37 37 32 32 39 50 58 55 53 58 49 34 31 35
22 18 15 14 12 10 10 11 13 13 11 13 14 14 22 19 19 16 19 24 20 20 17 11 9 11 13 16 22 21 18 19 21 24 26 36 55 72 73 76 89 86 59
24 20 18 16 13 11 11 11 12 11 11 13 14 18 20 19 16 27 33 30 24 16 10 8 8 15 18 19 19 18 15 15 14 14 19 24 32 48 67 90 92 91 99
27 23 21 18 15 13 12 12 12 13 12 12 17 18 21 19 29 37 34 23 17 12 9 8 9 16 19 21 15 8 9 4 4 5 9 15 23 33 49 66 80 93 96
36 30 25 20 17 15 14 14 14 13 13 16 26 25 33 32 38 35 19 14 10 9 9 8 10 13 14 8 4 4 3 4 4 6 6 6 7 9 9 18 29 36 77
41 34 28 23 20 18 18 19 17 16 21 28 27 40 41 41 57 28 19 14 10 9 9 9 13 9 5 4 4 4 4 5 5 6 7 8 7 8 10 8 8 9 9
46 36 30 28 25 23 35 32 27 27 53 61 69 68 43 62 49 27 17 12 10 10 9 9 10 6 4 3 4 6 7 9 9 10 10 14 11 10 12 14 13 11 8
49 41 37 34 34 71 77 78 77 69 69 80 73 45 51 49 32 17 15 12 10 9 10 10 9 4 3 4 5 8 7 11 15 16 14 18 14 17 18 16 12 10 10
77 74 83 57 66 83 85 77 71 71 77 71 64 49 46 32 20 22 15 12 10 11 12 10 8 4 4 4 7 7 6 11 17 20 16 19 18 21 16 12 12 23 28
96 96 93 81 81 75 64 52 65 66 63 66 55 43 35 33 39 28 14 11 11 16 12 11 6 5 4 4 8 8 8 16 19 22 25 20 20 20 14 16 34 51 45
96 96 93 91 79 72 40 54 54 50 53 52 31 35 43 43 31 19 16 10 16 20 11 12 6 5 5 6 7 7 12 18 18 19 25 25 21 14 14 24 36 54 60
96 91 80 63 44 42 45 44 37 31 36 34 37 43 50 47 26 16 13 16 41 18 11 9 6 6 7 7 7 10 16 14 12 20 26 26 21 12 14 21 28 44 49
73 48 44 45 51 52 42 34 32 33 34 36 44 44 55 53 28 14 14 17 30 13 12 7 6 6 6 8 12 15 14 10 12 22 24 21 13 9 11 16 21 24 32
88 58 52 55 60 46 40 38 37 37 45 48 51 53 73 48 19 16 18 29 14 12 9 8 7 7 10 14 16 14 10 11 13 14 19 12 9 8 9 10 17 26 34
70 70 74 58 55 63 60 48 41 42 53 52 63 41 29 17 16 24 27 15 12 14 8 10 9 12 15 17 16 13 12 12 12 13 13 12 10 10 11 10 10 12 16
94 93 90 90 86 70 49 50 56 57 66 47 28 21 18 18 26 23 15 14 12 15 9 10 13 16 18 18 15 12 13 13 12 13 15 13 13 12 12 12 12 12 12
90 88 86 77 62 58 61 74 75 66 59 38 28 19 20 22 16 15 14 12 17 11 10 14 17 19 19 17 14 14 14 14 15 17 15 15 15 14 14 13 12 12 12
82 83 83 84 85 84 78 71 66 72 54 43 28 21 22 16 15 15 12 14 17 13 14 19 21 20 19 15 15 15 17 17 17 16 17 17 16 14 13 14 14 14 14
76 80 86 87 86 86 83 87 84 82 52 47 35 30 19 17 16 13 14 21 16 15 21 24 23 22 17 17 17 19 20 19 19 20 21 20 18 16 16 16 16 14 15
84 86 93 86 85 90 86 82 82 81 82 70 25 18 19 16 14 17 25 20 15 23 26 27 24 20 18 19 22 24 23 23 25 26 24 22 18 20 19 19 19 15 14
84 85 87 85 90 86 75 36 31 24 22 22 19 18 18 18 21 36 18 18 25 29 29 27 24 21 21 24 27 27 28 30 31 30 27 23 23 24 24 22 21 17 13
86 86 86 87 84 67 36 44 50 49 26 22 58 27 18 27 29 23 22 27 32 32 30 27 24 23 27 30 30 31 33 36 36 31 29 28 29 29 27 25 23 17 13
59 66 38 34 33 30 43 42 45 68 44 59 22 24 35 34 24 26 30 37 36 34 31 28 27 30 34 34 34 33 32 32 33 33 32 33 34 33 31 28 24 17 13
72 58 53 53 49 40 36 62 58 28 22 26 36 41 44 27 30 36 41 41 38 35 31 31 35 38 36 37 35 33 31 30 33 36 37 38 39 36 34 29 18 16 16
76 70 80 72 65 70 57 28 23 25 36 44 80 43 29 34 45 46 45 42 38 34 33 36 39 40 40 38 33 31 31 35 40 43 45 46 44 39 35 30 16 16 19
76 61 71 81 89 56 58 35 33 49 77 66 39 31 37 50 50 49 46 42 42 42 43 44 46 45 41 38 37 35 36 42 48 53 56 55 50 45 40 29 15 15 20